| time (UTC) | temp F | wind direction | speed knots | gust knots | rain 1hr in | rain 24hr in | rain mn in | humidity % | barometer mb |
| 20260505140556 | 43 | 148 | 8.7 | 20.0 | 0.00 | 0.24 | 0.00 | 58 | 996.6 |
| 20260505140458 | 43 | 346 | 3.5 | 20.0 | 0.00 | 0.24 | 0.00 | 59 | 997.1 |
| 20260505140358 | 43 | 143 | 18.2 | 20.0 | 0.00 | 0.24 | 0.00 | 58 | 996.9 |
| 20260505140257 | 43 | 153 | 13.9 | 17.4 | 0.00 | 0.24 | 0.00 | 58 | 997.0 |
| 20260505130256 | 43 | 92 | 5.2 | 11.3 | 0.00 | 0.28 | 0.00 | 59 | 997.2 |
| 20260505130156 | 43 | 141 | 7.8 | 12.2 | 0.00 | 0.28 | 0.00 | 59 | 997.1 |
| 20260505124959 | 43 | 105 | 10.4 | 12.2 | 0.00 | 0.33 | 0.00 | 58 | 997.1 |
| 20260505124756 | 43 | 101 | 3.5 | 12.2 | 0.00 | 0.33 | 0.00 | 58 | 997.0 |
| 20260505124556 | 43 | 99 | 2.6 | 12.2 | 0.00 | 0.33 | 0.00 | 58 | 997.1 |
| 20260505124458 | 43 | 78 | 3.5 | 12.2 | 0.00 | 0.33 | 0.00 | 58 | 997.0 |
| 20260505124355 | 43 | 136 | 1.7 | 12.2 | 0.00 | 0.33 | 0.00 | 58 | 997.1 |
| 20260505124255 | 43 | 157 | 5.2 | 13.9 | 0.00 | 0.33 | 0.00 | 58 | 997.0 |
| 20260505124156 | 43 | 123 | 6.1 | 13.9 | 0.00 | 0.33 | 0.00 | 58 | 997.0 |
| 20260505124055 | 43 | 258 | 6.1 | 13.9 | 0.00 | 0.33 | 0.00 | 59 | 996.9 |
| 20260505123957 | 43 | 105 | 0.9 | 13.9 | 0.00 | 0.33 | 0.00 | 58 | 997.0 |
| 20260505123855 | 43 | 162 | 4.3 | 13.9 | 0.00 | 0.33 | 0.00 | 58 | 997.0 |
| 20260505123655 | 43 | 181 | 2.6 | 13.9 | 0.00 | 0.33 | 0.00 | 59 | 997.1 |
| 20260505123556 | 43 | 61 | 1.7 | 13.9 | 0.00 | 0.33 | 0.00 | 58 | 997.0 |
| 20260505123456 | 43 | 148 | 13.0 | 13.0 | 0.00 | 0.33 | 0.00 | 58 | 997.0 |
| 20260505123356 | 43 | 215 | 0.0 | 8.7 | 0.00 | 0.33 | 0.00 | 58 | 997.0 |
| 20260505123256 | 43 | 239 | 2.6 | 8.7 | 0.00 | 0.33 | 0.00 | 58 | 997.0 |
| 20260505123156 | 43 | 153 | 0.0 | 8.7 | 0.00 | 0.33 | 0.00 | 57 | 997.1 |
| 20260505123055 | 43 | 142 | 5.2 | 8.7 | 0.00 | 0.33 | 0.00 | 57 | 997.0 |
| 20260505122956 | 43 | 117 | 7.8 | 8.7 | 0.00 | 0.33 | 0.00 | 57 | 996.9 |
| 20260505122855 | 43 | 212 | 3.5 | 8.7 | 0.00 | 0.33 | 0.00 | 58 | 996.9 |
| 20260505122755 | 43 | 191 | 4.3 | 8.7 | 0.00 | 0.33 | 0.00 | 58 | 997.1 |
| 20260505122656 | 43 | 109 | 0.9 | 8.7 | 0.00 | 0.33 | 0.00 | 58 | 997.0 |
| 20260505122456 | 43 | 45 | 2.6 | 8.7 | 0.00 | 0.33 | 0.00 | 58 | 997.0 |
| 20260505122355 | 43 | 74 | 2.6 | 9.6 | 0.00 | 0.33 | 0.00 | 58 | 997.0 |
| 20260505122256 | 43 | 48 | 4.3 | 9.6 | 0.00 | 0.33 | 0.00 | 58 | 997.0 |
| 20260505122156 | 43 | 82 | 3.5 | 9.6 | 0.00 | 0.33 | 0.00 | 58 | 996.9 |
| 20260505122055 | 43 | 98 | 1.7 | 9.6 | 0.00 | 0.33 | 0.00 | 57 | 997.0 |
| 20260505121957 | 43 | 99 | 3.5 | 13.0 | 0.00 | 0.33 | 0.00 | 58 | 996.9 |
| 20260505121856 | 43 | 114 | 3.5 | 13.0 | 0.00 | 0.33 | 0.00 | 58 | 996.8 |
| 20260505121755 | 43 | 134 | 3.5 | 15.6 | 0.00 | 0.33 | 0.00 | 58 | 996.9 |
| 20260505121655 | 43 | 120 | 4.3 | 15.6 | 0.00 | 0.33 | 0.00 | 58 | 996.8 |
| 20260505121557 | 43 | 144 | 3.5 | 15.6 | 0.00 | 0.33 | 0.00 | 58 | 996.8 |
| 20260505121457 | 43 | 134 | 6.1 | 15.6 | 0.00 | 0.33 | 0.00 | 58 | 996.7 |
| 20260505121256 | 43 | 123 | 4.3 | 15.6 | 0.00 | 0.33 | 0.00 | 58 | 996.9 |
| 20260505121156 | 43 | 120 | 11.3 | 15.6 | 0.00 | 0.33 | 0.00 | 58 | 996.8 |
| 20260505121056 | 43 | 186 | 5.2 | 15.6 | 0.00 | 0.33 | 0.00 | 58 | 996.9 |
| 20260505120958 | 43 | 134 | 14.8 | 15.6 | 0.00 | 0.33 | 0.00 | 59 | 996.9 |
| 20260505120856 | 43 | 134 | 3.5 | 14.8 | 0.00 | 0.33 | 0.00 | 59 | 996.8 |
| 20260505120756 | 43 | 160 | 1.7 | 14.8 | 0.00 | 0.33 | 0.00 | 59 | 996.9 |
| 20260505120656 | 43 | 127 | 4.3 | 14.8 | 0.00 | 0.33 | 0.00 | 59 | 996.9 |
| 20260505120555 | 43 | 58 | 3.5 | 18.2 | 0.00 | 0.33 | 0.00 | 59 | 996.9 |
| 20260505120457 | 43 | 85 | 3.5 | 18.2 | 0.00 | 0.33 | 0.00 | 59 | 997.0 |
| 20260505120358 | 43 | 116 | 9.6 | 18.2 | 0.00 | 0.33 | 0.00 | 58 | 997.0 |
| 20260505120256 | 43 | 154 | 12.2 | 18.2 | 0.00 | 0.33 | 0.00 | 59 | 997.0 |
| 20260505120156 | 43 | 190 | 3.5 | 18.2 | 0.00 | 0.33 | 0.00 | 59 | 997.0 |
| 20260505115957 | 43 | 91 | 8.7 | 18.2 | 0.00 | 0.38 | 0.00 | 59 | 997.1 |
| 20260505115855 | 43 | 159 | 7.8 | 18.2 | 0.00 | 0.38 | 0.00 | 58 | 997.1 |
| 20260505115656 | 43 | 144 | 5.2 | 15.6 | 0.00 | 0.38 | 0.00 | 58 | 997.0 |
| 20260505115458 | 43 | 200 | 7.8 | 22.6 | 0.00 | 0.38 | 0.00 | 58 | 997.1 |
| 20260505115356 | 43 | 159 | 4.3 | 22.6 | 0.00 | 0.38 | 0.00 | 58 | 997.1 |
| 20260505115156 | 43 | 118 | 5.2 | 22.6 | 0.00 | 0.38 | 0.00 | 58 | 997.2 |
| 20260505114957 | 43 | 82 | 4.3 | 22.6 | 0.00 | 0.38 | 0.00 | 58 | 997.2 |
| 20260505114856 | 43 | 107 | 9.6 | 22.6 | 0.00 | 0.38 | 0.00 | 58 | 997.3 |
| 20260505114755 | 43 | 146 | 11.3 | 25.2 | 0.00 | 0.38 | 0.00 | 58 | 997.1 |
| 20260505114656 | 43 | 215 | 5.2 | 21.7 | 0.00 | 0.38 | 0.00 | 58 | 997.2 |
| 20260505114557 | 43 | 143 | 3.5 | 21.7 | 0.00 | 0.38 | 0.00 | 58 | 997.2 |
| 20260505114356 | 43 | 138 | 16.5 | 21.7 | 0.00 | 0.38 | 0.00 | 57 | 997.2 |
| 20260505114255 | 43 | 155 | 8.7 | 21.7 | 0.00 | 0.38 | 0.00 | 57 | 997.2 |
| 20260505114155 | 43 | 107 | 13.0 | 21.7 | 0.00 | 0.38 | 0.00 | 57 | 997.2 |
| 20260505114056 | 43 | 144 | 11.3 | 19.1 | 0.00 | 0.38 | 0.00 | 58 | 997.2 |
| 20260505113956 | 43 | 117 | 2.6 | 19.1 | 0.00 | 0.38 | 0.00 | 58 | 997.3 |
| 20260505113756 | 43 | 138 | 8.7 | 19.1 | 0.00 | 0.38 | 0.00 | 58 | 997.3 |
| 20260505113656 | 43 | 53 | 6.1 | 19.1 | 0.00 | 0.38 | 0.00 | 59 | 997.4 |
| 20260505113557 | 43 | 98 | 7.8 | 19.1 | 0.00 | 0.38 | 0.00 | 58 | 997.2 |
| 20260505113356 | 43 | 184 | 6.1 | 12.2 | 0.00 | 0.38 | 0.00 | 59 | 997.4 |
| 20260505113255 | 43 | 144 | 4.3 | 12.2 | 0.00 | 0.38 | 0.00 | 60 | 997.4 |
| 20260505113156 | 43 | 119 | 3.5 | 12.2 | 0.00 | 0.38 | 0.00 | 59 | 997.5 |
| 20260505112957 | 43 | 129 | 11.3 | 13.0 | 0.00 | 0.38 | 0.00 | 59 | 997.3 |
| 20260505112856 | 43 | 113 | 1.7 | 13.0 | 0.00 | 0.38 | 0.00 | 59 | 997.4 |
| 20260505112756 | 42 | 132 | 8.7 | 13.0 | 0.00 | 0.38 | 0.00 | 60 | 997.5 |
| 20260505112655 | 42 | 130 | 9.6 | 11.3 | 0.00 | 0.38 | 0.00 | 60 | 997.4 |
| 20260505112555 | 42 | 158 | 2.6 | 11.3 | 0.00 | 0.38 | 0.00 | 61 | 997.5 |
| 20260505112458 | 42 | 111 | 5.2 | 11.3 | 0.00 | 0.38 | 0.00 | 61 | 997.4 |
| 20260505112355 | 42 | 155 | 1.7 | 11.3 | 0.00 | 0.38 | 0.00 | 61 | 997.3 |
| 20260505112255 | 42 | 155 | 0.9 | 11.3 | 0.00 | 0.38 | 0.00 | 63 | 997.4 |
| 20260505112155 | 42 | 141 | 2.6 | 11.3 | 0.00 | 0.38 | 0.00 | 64 | 997.5 |
| 20260505112055 | 42 | 159 | 6.1 | 11.3 | 0.00 | 0.38 | 0.00 | 64 | 997.5 |
| 20260505111857 | 41 | 117 | 2.6 | 6.1 | 0.00 | 0.38 | 0.00 | 69 | 997.5 |
| 20260505111656 | 41 | 74 | 0.9 | 6.1 | 0.00 | 0.38 | 0.00 | 71 | 997.5 |
| 20260505111557 | 41 | 74 | 2.6 | 10.4 | 0.00 | 0.38 | 0.00 | 71 | 997.5 |
| 20260505111457 | 40 | 76 | 2.6 | 10.4 | 0.00 | 0.38 | 0.00 | 76 | 997.4 |
| 20260505111355 | 40 | 28 | 1.7 | 10.4 | 0.00 | 0.38 | 0.00 | 78 | 997.5 |
| 20260505111255 | 40 | 27 | 2.6 | 10.4 | 0.00 | 0.38 | 0.00 | 81 | 997.4 |
| 20260505111155 | 40 | 207 | 1.7 | 10.4 | 0.00 | 0.38 | 0.00 | 81 | 997.5 |
| 20260505111055 | 40 | 207 | 0.9 | 10.4 | 0.00 | 0.38 | 0.00 | 79 | 997.4 |
| 20260505110958 | 40 | 207 | 1.7 | 10.4 | 0.00 | 0.38 | 0.00 | 83 | 997.4 |
| 20260505110856 | 39 | 127 | 6.1 | 10.4 | 0.00 | 0.38 | 0.00 | 82 | 997.4 |
| 20260505110755 | 39 | 142 | 7.0 | 10.4 | 0.00 | 0.38 | 0.00 | 83 | 997.4 |
| 20260505110655 | 39 | 95 | 7.8 | 9.6 | 0.00 | 0.38 | 0.00 | 89 | 997.5 |
| 20260505110556 | 39 | 93 | 6.1 | 9.6 | 0.00 | 0.38 | 0.00 | 91 | 997.4 |
| 20260505110457 | 39 | 92 | 7.0 | 9.6 | 0.00 | 0.38 | 0.00 | 92 | 997.5 |
| 20260505110356 | 38 | 166 | 2.6 | 9.6 | 0.00 | 0.38 | 0.00 | 92 | 997.4 |
| 20260505110258 | 38 | 63 | 0.0 | 9.6 | 0.00 | 0.38 | 0.00 | 93 | 997.4 |
| 20260505110155 | 38 | 309 | 3.5 | 9.6 | 0.00 | 0.38 | 0.00 | 94 | 997.4 |
| 20260505102157 | 39 | 92 | 3.5 | 3.5 | 0.00 | 0.43 | 0.00 | 94 | 997.6 |
| 20260505102057 | 39 | 88 | 2.6 | 2.6 | 0.00 | 0.43 | 0.00 | 94 | 997.5 |
| 20260505101958 | 39 | 88 | 0.9 | 2.6 | 0.00 | 0.43 | 0.00 | 94 | 997.5 |
| 20260505101857 | 39 | 88 | 0.9 | 2.6 | 0.00 | 0.43 | 0.00 | 94 | 997.5 |
| 20260505101756 | 39 | 88 | 0.0 | 2.6 | 0.00 | 0.43 | 0.00 | 94 | 997.6 |
| 20260505101657 | 39 | 88 | 0.9 | 2.6 | 0.00 | 0.43 | 0.00 | 94 | 997.6 |
| 20260505101558 | 39 | 88 | 1.7 | 3.5 | 0.00 | 0.43 | 0.00 | 94 | 997.6 |
| 20260505101459 | 39 | 88 | 1.7 | 3.5 | 0.00 | 0.43 | 0.00 | 94 | 997.6 |
| 20260505101357 | 39 | 88 | 1.7 | 3.5 | 0.00 | 0.43 | 0.00 | 94 | 997.5 |
| 20260505101256 | 39 | 88 | 1.7 | 3.5 | 0.00 | 0.43 | 0.00 | 94 | 997.5 |
| 20260505101158 | 39 | 88 | 0.9 | 3.5 | 0.00 | 0.43 | 0.00 | 94 | 997.5 |
| 20260505101057 | 39 | 88 | 1.7 | 3.5 | 0.00 | 0.43 | 0.00 | 94 | 997.5 |
| 20260505100958 | 39 | 88 | 1.7 | 3.5 | 0.00 | 0.43 | 0.00 | 94 | 997.5 |
| 20260505100857 | 39 | 88 | 1.7 | 3.5 | 0.00 | 0.43 | 0.00 | 94 | 997.6 |
| 20260505100757 | 39 | 88 | 2.6 | 3.5 | 0.00 | 0.43 | 0.00 | 94 | 997.6 |
| 20260505100657 | 39 | 88 | 3.5 | 3.5 | 0.00 | 0.43 | 0.00 | 94 | 997.6 |
| 20260505100556 | 39 | 330 | 0.9 | 1.7 | 0.00 | 0.43 | 0.00 | 94 | 997.6 |
| 20260505100500 | 39 | 330 | 0.0 | 1.7 | 0.00 | 0.43 | 0.00 | 94 | 997.5 |
| 20260505100357 | 39 | 330 | 0.0 | 1.7 | 0.00 | 0.43 | 0.00 | 94 | 997.5 |
| 20260505100256 | 39 | 330 | 0.0 | 2.6 | 0.00 | 0.43 | 0.00 | 94 | 997.6 |
| 20260505100056 | 39 | 330 | 0.9 | 2.6 | 0.00 | 0.43 | 0.00 | 94 | 997.6 |
| 20260505095959 | 39 | 330 | 0.0 | 3.5 | 0.00 | 0.43 | 0.00 | 94 | 997.5 |
| 20260505095856 | 39 | 330 | 0.9 | 3.5 | 0.00 | 0.46 | 0.00 | 93 | 997.5 |
| 20260505095756 | 39 | 330 | 0.9 | 3.5 | 0.00 | 0.46 | 0.00 | 93 | 997.4 |
| 20260505095656 | 39 | 330 | 0.0 | 5.2 | 0.00 | 0.46 | 0.00 | 93 | 997.4 |
| 20260505095556 | 39 | 330 | 1.7 | 5.2 | 0.00 | 0.46 | 0.00 | 93 | 997.5 |
| 20260505095356 | 39 | 330 | 1.7 | 7.0 | 0.00 | 0.46 | 0.00 | 94 | 997.6 |
| 20260505095256 | 39 | 330 | 1.7 | 7.0 | 0.00 | 0.46 | 0.00 | 94 | 997.5 |
| 20260505095155 | 39 | 331 | 0.9 | 7.0 | 0.00 | 0.46 | 0.00 | 94 | 997.4 |
| 20260505095056 | 39 | 331 | 2.6 | 7.0 | 0.00 | 0.46 | 0.00 | 94 | 997.4 |
| 20260505094957 | 39 | 331 | 3.5 | 7.0 | 0.00 | 0.46 | 0.00 | 94 | 997.5 |
| 20260505094755 | 39 | 330 | 4.3 | 7.0 | 0.00 | 0.46 | 0.00 | 94 | 997.4 |
| 20260505094655 | 39 | 320 | 3.5 | 7.0 | 0.00 | 0.46 | 0.00 | 93 | 997.5 |
| 20260505094555 | 39 | 314 | 4.3 | 7.0 | 0.00 | 0.46 | 0.00 | 93 | 997.6 |
| 20260505094457 | 39 | 287 | 4.3 | 5.2 | 0.00 | 0.46 | 0.00 | 93 | 997.6 |
| 20260505094355 | 39 | 198 | 2.6 | 2.6 | 0.00 | 0.46 | 0.00 | 93 | 997.6 |
| 20260505094055 | 39 | 196 | 0.0 | 3.5 | 0.00 | 0.46 | 0.00 | 93 | 997.7 |
| 20260505093957 | 39 | 196 | 0.9 | 3.5 | 0.00 | 0.46 | 0.00 | 93 | 997.6 |
| 20260505093856 | 39 | 196 | 0.9 | 3.5 | 0.00 | 0.46 | 0.00 | 93 | 997.7 |
| 20260505093755 | 39 | 196 | 0.0 | 3.5 | 0.00 | 0.46 | 0.00 | 93 | 997.7 |
| 20260505093555 | 39 | 196 | 1.7 | 3.5 | 0.00 | 0.46 | 0.00 | 93 | 997.6 |
| 20260505093458 | 39 | 196 | 0.9 | 5.2 | 0.00 | 0.46 | 0.00 | 93 | 997.6 |
| 20260505093356 | 39 | 196 | 0.9 | 6.1 | 0.00 | 0.46 | 0.00 | 93 | 997.5 |
| 20260505093255 | 38 | 196 | 1.7 | 6.1 | 0.00 | 0.46 | 0.00 | 93 | 997.5 |
| 20260505093155 | 38 | 107 | 1.7 | 6.1 | 0.00 | 0.46 | 0.00 | 93 | 997.6 |
| 20260505093055 | 39 | 101 | 1.7 | 6.1 | 0.00 | 0.46 | 0.00 | 93 | 997.6 |
| 20260505092957 | 39 | 99 | 1.7 | 6.1 | 0.00 | 0.46 | 0.00 | 93 | 997.6 |
| 20260505092857 | 38 | 99 | 0.9 | 6.1 | 0.00 | 0.46 | 0.00 | 93 | 997.5 |
| 20260505092757 | 38 | 99 | 0.9 | 6.1 | 0.00 | 0.46 | 0.00 | 93 | 997.5 |
| 20260505092655 | 38 | 104 | 5.2 | 6.1 | 0.00 | 0.46 | 0.00 | 93 | 997.5 |
| 20260505092555 | 38 | 114 | 6.1 | 6.1 | 0.00 | 0.46 | 0.00 | 93 | 997.6 |
| 20260505092456 | 38 | 131 | 2.6 | 4.3 | 0.00 | 0.46 | 0.00 | 93 | 997.5 |
| 20260505092355 | 38 | 128 | 3.5 | 4.3 | 0.00 | 0.46 | 0.00 | 93 | 997.5 |
| 20260505092255 | 38 | 155 | 1.7 | 4.3 | 0.00 | 0.46 | 0.00 | 93 | 997.5 |
| 20260505092155 | 38 | 155 | 2.6 | 5.2 | 0.00 | 0.46 | 0.00 | 94 | 997.4 |
| 20260505092056 | 38 | 155 | 2.6 | 5.2 | 0.00 | 0.46 | 0.00 | 93 | 997.4 |
| 20260505091956 | 38 | 155 | 2.6 | 5.2 | 0.00 | 0.46 | 0.00 | 93 | 997.4 |
| 20260505091855 | 38 | 155 | 1.7 | 5.2 | 0.00 | 0.46 | 0.00 | 93 | 997.4 |
| 20260505091755 | 38 | 155 | 2.6 | 5.2 | 0.00 | 0.46 | 0.00 | 93 | 997.4 |
| 20260505091656 | 38 | 155 | 2.6 | 5.2 | 0.00 | 0.46 | 0.00 | 93 | 997.5 |
| 20260505091556 | 38 | 155 | 2.6 | 5.2 | 0.00 | 0.46 | 0.00 | 93 | 997.5 |
| 20260505091458 | 38 | 155 | 2.6 | 5.2 | 0.00 | 0.46 | 0.00 | 93 | 997.5 |
| 20260505091256 | 38 | 155 | 2.6 | 5.2 | 0.00 | 0.46 | 0.00 | 93 | 997.6 |
| 20260505091155 | 38 | 155 | 3.5 | 5.2 | 0.00 | 0.46 | 0.00 | 93 | 997.6 |
| 20260505091055 | 39 | 155 | 0.9 | 5.2 | 0.00 | 0.46 | 0.00 | 93 | 997.5 |
| 20260505090958 | 38 | 155 | 0.9 | 5.2 | 0.00 | 0.46 | 0.00 | 93 | 997.6 |
| 20260505090755 | 39 | 155 | 1.7 | 5.2 | 0.00 | 0.46 | 0.00 | 93 | 997.8 |
| 20260505090655 | 39 | 155 | 2.6 | 5.2 | 0.00 | 0.46 | 0.00 | 93 | 997.7 |
| 20260505090555 | 39 | 155 | 2.6 | 5.2 | 0.00 | 0.46 | 0.00 | 93 | 997.7 |
| 20260505090457 | 39 | 182 | 2.6 | 3.5 | 0.00 | 0.46 | 0.00 | 93 | 997.7 |
| 20260505090356 | 39 | 182 | 2.6 | 3.5 | 0.00 | 0.46 | 0.00 | 93 | 997.7 |
| 20260505090155 | 39 | 288 | 1.7 | 1.7 | 0.00 | 0.46 | 0.00 | 93 | 997.7 |
| 20260505090055 | 39 | 288 | 1.7 | 1.7 | 0.00 | 0.46 | 0.00 | 93 | 997.6 |
| 20260505090002 | 39 | 288 | 0.9 | 1.7 | 0.00 | 0.46 | 0.00 | 93 | 997.6 |
| 20260505085859 | 39 | 288 | 0.0 | 1.7 | 0.00 | 0.49 | 0.00 | 93 | 997.6 |
| 20260505085559 | 39 | 288 | 0.9 | 1.7 | 0.00 | 0.49 | 0.00 | 93 | 997.8 |
| 20260505085504 | 39 | 288 | 0.9 | 1.7 | 0.00 | 0.49 | 0.00 | 93 | 997.8 |
| 20260505085358 | 39 | 288 | 0.9 | 3.5 | 0.00 | 0.49 | 0.00 | 94 | 997.7 |
| 20260505085258 | 39 | 288 | 0.0 | 4.3 | 0.00 | 0.49 | 0.00 | 94 | 997.7 |
| 20260505085158 | 39 | 288 | 0.9 | 4.3 | 0.00 | 0.49 | 0.00 | 94 | 997.7 |
| 20260505085059 | 39 | 288 | 0.0 | 4.3 | 0.00 | 0.49 | 0.00 | 94 | 997.8 |
| 20260505085002 | 39 | 288 | 0.0 | 4.3 | 0.00 | 0.49 | 0.00 | 94 | 997.8 |
| 20260505084858 | 39 | 288 | 1.7 | 4.3 | 0.00 | 0.49 | 0.00 | 93 | 997.8 |
| 20260505084758 | 39 | 288 | 0.9 | 4.3 | 0.00 | 0.49 | 0.00 | 93 | 997.7 |
| 20260505084659 | 39 | 288 | 1.7 | 4.3 | 0.00 | 0.49 | 0.00 | 93 | 997.6 |
| 20260505084558 | 39 | 288 | 2.6 | 4.3 | 0.00 | 0.49 | 0.00 | 93 | 997.7 |
| 20260505084500 | 39 | 287 | 4.3 | 5.2 | 0.00 | 0.49 | 0.00 | 93 | 997.7 |
| 20260505084359 | 39 | 192 | 1.7 | 2.6 | 0.00 | 0.49 | 0.00 | 93 | 997.7 |
| 20260505084259 | 39 | 161 | 0.9 | 2.6 | 0.00 | 0.49 | 0.00 | 93 | 997.8 |
| 20260505084159 | 39 | 161 | 1.7 | 2.6 | 0.00 | 0.49 | 0.00 | 93 | 997.8 |
| 20260505084059 | 39 | 161 | 1.7 | 2.6 | 0.00 | 0.49 | 0.00 | 94 | 997.8 |
| 20260505083858 | 39 | 161 | 0.9 | 2.6 | 0.00 | 0.49 | 0.00 | 94 | 997.8 |
| 20260505083758 | 39 | 161 | 0.9 | 2.6 | 0.00 | 0.49 | 0.00 | 94 | 997.8 |
| 20260505083659 | 39 | 161 | 0.0 | 2.6 | 0.00 | 0.49 | 0.00 | 94 | 997.8 |
| 20260505083558 | 39 | 162 | 1.7 | 2.6 | 0.00 | 0.49 | 0.00 | 94 | 997.8 |
| 20260505083500 | 39 | 161 | 1.7 | 3.5 | 0.00 | 0.49 | 0.00 | 94 | 997.8 |
| 20260505083259 | 39 | 161 | 3.5 | 3.5 | 0.00 | 0.49 | 0.00 | 94 | 997.8 |
| 20260505083159 | 39 | 161 | 1.7 | 3.5 | 0.00 | 0.49 | 0.00 | 94 | 997.8 |
| 20260505083058 | 39 | 161 | 1.7 | 3.5 | 0.00 | 0.49 | 0.00 | 94 | 997.8 |
| 20260505083003 | 39 | 161 | 3.5 | 3.5 | 0.00 | 0.49 | 0.00 | 94 | 997.8 |
| 20260505082658 | 39 | 162 | 0.0 | 2.6 | 0.00 | 0.49 | 0.00 | 94 | 997.9 |
| 20260505082558 | 39 | 162 | 0.9 | 2.6 | 0.00 | 0.49 | 0.00 | 94 | 997.9 |
| 20260505082504 | 39 | 162 | 1.7 | 2.6 | 0.00 | 0.49 | 0.00 | 94 | 998.0 |
| 20260505082358 | 39 | 162 | 0.9 | 1.7 | 0.00 | 0.49 | 0.00 | 94 | 997.9 |
| 20260505082159 | 39 | 162 | 0.0 | 1.7 | 0.00 | 0.49 | 0.00 | 94 | 997.9 |
| 20260505082058 | 39 | 162 | 0.0 | 1.7 | 0.00 | 0.49 | 0.00 | 94 | 997.9 |
| 20260505082000 | 39 | 162 | 0.9 | 1.7 | 0.00 | 0.49 | 0.00 | 94 | 997.9 |
| 20260505081759 | 39 | 162 | 0.9 | 2.6 | 0.00 | 0.49 | 0.00 | 94 | 997.9 |
| 20260505081659 | 39 | 162 | 0.0 | 2.6 | 0.00 | 0.49 | 0.00 | 94 | 997.9 |
| 20260505081500 | 39 | 162 | 0.0 | 2.6 | 0.00 | 0.49 | 0.00 | 94 | 997.9 |
| 20260505081359 | 39 | 162 | 0.9 | 2.6 | 0.00 | 0.49 | 0.00 | 94 | 997.9 |
| 20260505081259 | 39 | 162 | 0.9 | 2.6 | 0.00 | 0.49 | 0.00 | 94 | 997.9 |
| 20260505081158 | 39 | 162 | 0.0 | 2.6 | 0.00 | 0.49 | 0.00 | 94 | 997.9 |
| 20260505081100 | 39 | 162 | 1.7 | 3.5 | 0.00 | 0.49 | 0.00 | 94 | 997.9 |
| 20260505081005 | 39 | 162 | 1.7 | 3.5 | 0.00 | 0.49 | 0.00 | 94 | 997.9 |
| 20260505080859 | 39 | 162 | 0.9 | 5.2 | 0.00 | 0.49 | 0.00 | 94 | 997.9 |
| 20260505080759 | 39 | 162 | 0.0 | 5.2 | 0.00 | 0.49 | 0.00 | 94 | 997.9 |
| 20260505080500 | 39 | 162 | 0.9 | 5.2 | 0.00 | 0.49 | 0.00 | 94 | 997.9 |
| 20260505080359 | 39 | 162 | 0.0 | 5.2 | 0.00 | 0.49 | 0.00 | 94 | 998.0 |
| 20260505080158 | 39 | 162 | 0.0 | 5.2 | 0.00 | 0.49 | 0.00 | 94 | 998.0 |
| 20260505080058 | 39 | 162 | 1.7 | 5.2 | 0.00 | 0.49 | 0.00 | 94 | 998.2 |
| 20260505075859 | 39 | 90 | 2.6 | 3.5 | 0.00 | 0.54 | 0.49 | 94 | 998.2 |
| 20260505075759 | 39 | 44 | 0.9 | 5.2 | 0.00 | 0.54 | 0.49 | 94 | 998.1 |
| 20260505075658 | 39 | 44 | 0.0 | 5.2 | 0.00 | 0.54 | 0.49 | 94 | 998.1 |
| 20260505075558 | 39 | 44 | 0.9 | 5.2 | 0.00 | 0.54 | 0.49 | 94 | 998.1 |
| 20260505075504 | 39 | 59 | 2.6 | 5.2 | 0.00 | 0.54 | 0.49 | 94 | 998.1 |
| 20260505075359 | 39 | 34 | 0.9 | 5.2 | 0.00 | 0.54 | 0.49 | 94 | 998.1 |
| 20260505075259 | 39 | 34 | 0.0 | 5.2 | 0.00 | 0.54 | 0.49 | 94 | 998.1 |
| 20260505075159 | 39 | 34 | 2.6 | 5.2 | 0.00 | 0.54 | 0.49 | 94 | 998.2 |
| 20260505075058 | 39 | 13 | 2.6 | 5.2 | 0.00 | 0.54 | 0.49 | 94 | 998.1 |
| 20260505075000 | 39 | 360 | 3.5 | 5.2 | 0.00 | 0.54 | 0.49 | 94 | 998.0 |
| 20260505074858 | 39 | 327 | 3.5 | 4.3 | 0.00 | 0.54 | 0.49 | 94 | 998.2 |
| 20260505074758 | 39 | 323 | 1.7 | 3.5 | 0.00 | 0.54 | 0.49 | 94 | 998.2 |
| 20260505074700 | 39 | 323 | 0.9 | 3.5 | 0.00 | 0.54 | 0.49 | 94 | 998.1 |
| 20260505074558 | 39 | 323 | 1.7 | 3.5 | 0.00 | 0.54 | 0.49 | 94 | 998.1 |
| 20260505074501 | 39 | 323 | 1.7 | 3.5 | 0.00 | 0.54 | 0.49 | 94 | 998.2 |
| 20260505074358 | 39 | 346 | 2.6 | 4.3 | 0.00 | 0.54 | 0.49 | 94 | 998.1 |
| 20260505074259 | 39 | 346 | 0.0 | 4.3 | 0.00 | 0.54 | 0.49 | 94 | 998.2 |
| 20260505074158 | 39 | 346 | 0.0 | 6.1 | 0.00 | 0.54 | 0.49 | 94 | 998.2 |
| 20260505074059 | 39 | 346 | 0.0 | 6.1 | 0.00 | 0.54 | 0.49 | 94 | 998.2 |
| 20260505073959 | 39 | 346 | 0.9 | 6.1 | 0.00 | 0.54 | 0.49 | 94 | 998.2 |
| 20260505073759 | 39 | 324 | 1.7 | 6.1 | 0.00 | 0.54 | 0.49 | 94 | 998.1 |
| 20260505073658 | 39 | 314 | 2.6 | 6.1 | 0.00 | 0.54 | 0.49 | 94 | 998.0 |
| 20260505073558 | 39 | 316 | 3.5 | 6.1 | 0.00 | 0.54 | 0.49 | 94 | 998.0 |
| 20260505073359 | 39 | 292 | 3.5 | 6.1 | 0.00 | 0.54 | 0.49 | 94 | 997.9 |
| 20260505073259 | 39 | 309 | 2.6 | 4.3 | 0.00 | 0.54 | 0.49 | 94 | 998.0 |
| 20260505073158 | 39 | 339 | 4.3 | 4.3 | 0.00 | 0.54 | 0.49 | 94 | 998.1 |
| 20260505073059 | 39 | 350 | 3.5 | 4.3 | 0.00 | 0.54 | 0.49 | 94 | 998.1 |
| 20260505073000 | 39 | 322 | 2.6 | 4.3 | 0.00 | 0.54 | 0.49 | 94 | 998.1 |
| 20260505072859 | 39 | 302 | 1.7 | 4.3 | 0.00 | 0.54 | 0.49 | 94 | 998.0 |
| 20260505072800 | 39 | 336 | 2.6 | 5.2 | 0.00 | 0.54 | 0.49 | 94 | 997.9 |
| 20260505072658 | 39 | 265 | 2.6 | 5.2 | 0.00 | 0.54 | 0.49 | 94 | 998.0 |
| 20260505072358 | 39 | 275 | 0.9 | 5.2 | 0.00 | 0.54 | 0.49 | 94 | 998.1 |
| 20260505072259 | 39 | 254 | 2.6 | 4.3 | 0.00 | 0.54 | 0.49 | 94 | 998.1 |
| 20260505072159 | 39 | 252 | 1.7 | 4.3 | 0.00 | 0.54 | 0.49 | 94 | 998.2 |
| 20260505072059 | 39 | 252 | 1.7 | 4.3 | 0.00 | 0.54 | 0.49 | 94 | 998.1 |
| 20260505072001 | 39 | 252 | 2.6 | 4.3 | 0.00 | 0.54 | 0.49 | 94 | 998.1 |
| 20260505071859 | 39 | 253 | 2.6 | 4.3 | 0.00 | 0.54 | 0.49 | 94 | 998.1 |
| 20260505071758 | 39 | 252 | 4.3 | 4.3 | 0.00 | 0.54 | 0.49 | 94 | 998.2 |
| 20260505071559 | 39 | 223 | 3.5 | 6.1 | 0.00 | 0.54 | 0.49 | 94 | 998.2 |
| 20260505071500 | 39 | 252 | 1.7 | 6.1 | 0.00 | 0.54 | 0.49 | 94 | 998.3 |
| 20260505071359 | 39 | 252 | 1.7 | 6.1 | 0.00 | 0.54 | 0.49 | 93 | 998.2 |
| 20260505071058 | 39 | 244 | 2.6 | 7.0 | 0.00 | 0.54 | 0.49 | 94 | 998.3 |
| 20260505071000 | 39 | 244 | 0.9 | 7.0 | 0.00 | 0.54 | 0.49 | 94 | 998.2 |
| 20260505070859 | 39 | 248 | 2.6 | 7.0 | 0.00 | 0.54 | 0.49 | 94 | 998.2 |
| 20260505070759 | 39 | 250 | 2.6 | 7.0 | 0.00 | 0.54 | 0.49 | 94 | 998.2 |
| 20260505070658 | 39 | 249 | 2.6 | 7.0 | 0.00 | 0.54 | 0.49 | 94 | 998.3 |
| 20260505070558 | 39 | 256 | 1.7 | 7.0 | 0.00 | 0.54 | 0.49 | 94 | 998.3 |
| 20260505070501 | 39 | 238 | 2.6 | 7.0 | 0.00 | 0.54 | 0.49 | 94 | 998.3 |
| 20260505070358 | 39 | 196 | 1.7 | 7.0 | 0.00 | 0.54 | 0.49 | 94 | 998.2 |
| 20260505070258 | 39 | 195 | 5.2 | 7.8 | 0.00 | 0.54 | 0.49 | 94 | 998.3 |
| 20260505070158 | 39 | 237 | 2.6 | 8.7 | 0.00 | 0.54 | 0.49 | 94 | 998.2 |
| 20260505070058 | 39 | 235 | 2.6 | 8.7 | 0.00 | 0.54 | 0.49 | 94 | 998.3 |
| 20260505070001 | 39 | 157 | 0.9 | 8.7 | 0.00 | 0.58 | 0.49 | 94 | 998.3 |
| 20260505065859 | 39 | 157 | 2.6 | 8.7 | 0.00 | 0.58 | 0.49 | 94 | 998.3 |
| 20260505065658 | 39 | 322 | 0.9 | 8.7 | 0.00 | 0.58 | 0.49 | 94 | 998.1 |
| 20260505065505 | 39 | 303 | 3.5 | 8.7 | 0.00 | 0.58 | 0.49 | 94 | 998.2 |
| 20260505065358 | 39 | 325 | 8.7 | 8.7 | 0.00 | 0.58 | 0.49 | 93 | 998.2 |
| 20260505065258 | 39 | 317 | 3.5 | 4.3 | 0.00 | 0.58 | 0.49 | 93 | 998.3 |
| 20260505065158 | 39 | 265 | 0.9 | 3.5 | 0.00 | 0.58 | 0.49 | 93 | 998.2 |
| 20260505065059 | 39 | 265 | 1.7 | 3.5 | 0.00 | 0.58 | 0.49 | 93 | 998.1 |
| 20260505064859 | 39 | 278 | 2.6 | 3.5 | 0.00 | 0.58 | 0.49 | 93 | 998.0 |
| 20260505064759 | 39 | 278 | 2.6 | 3.5 | 0.00 | 0.58 | 0.49 | 93 | 998.1 |
| 20260505064659 | 39 | 278 | 1.7 | 3.5 | 0.00 | 0.58 | 0.49 | 93 | 998.1 |
| 20260505064559 | 39 | 278 | 0.9 | 3.5 | 0.00 | 0.58 | 0.49 | 93 | 998.1 |
| 20260505064500 | 39 | 278 | 2.6 | 3.5 | 0.00 | 0.58 | 0.49 | 93 | 998.2 |
| 20260505064359 | 39 | 303 | 2.6 | 4.3 | 0.00 | 0.58 | 0.49 | 93 | 998.2 |
| 20260505064259 | 39 | 355 | 3.5 | 4.3 | 0.00 | 0.58 | 0.49 | 93 | 998.3 |
| 20260505064159 | 39 | 350 | 3.5 | 5.2 | 0.00 | 0.58 | 0.49 | 93 | 998.2 |
| 20260505064100 | 39 | 295 | 1.7 | 5.2 | 0.00 | 0.58 | 0.49 | 93 | 998.3 |
| 20260505064000 | 39 | 295 | 0.9 | 5.2 | 0.00 | 0.58 | 0.49 | 93 | 998.3 |
| 20260505063758 | 39 | 295 | 0.9 | 5.2 | 0.00 | 0.58 | 0.49 | 93 | 998.2 |
| 20260505063658 | 39 | 295 | 3.5 | 5.2 | 0.00 | 0.58 | 0.49 | 93 | 998.1 |
| 20260505063558 | 39 | 296 | 2.6 | 6.1 | 0.00 | 0.58 | 0.49 | 93 | 998.2 |
| 20260505063300 | 39 | 325 | 5.2 | 9.6 | 0.00 | 0.58 | 0.49 | 93 | 998.2 |
| 20260505063158 | 39 | 295 | 1.7 | 9.6 | 0.00 | 0.58 | 0.49 | 92 | 998.2 |
| 20260505063003 | 39 | 320 | 3.5 | 9.6 | 0.00 | 0.58 | 0.49 | 92 | 998.2 |
| 20260505062900 | 39 | 43 | 2.6 | 9.6 | 0.00 | 0.58 | 0.49 | 92 | 998.3 |
| 20260505062800 | 40 | 53 | 5.2 | 9.6 | 0.00 | 0.58 | 0.49 | 92 | 998.3 |
| 20260505062658 | 40 | 12 | 4.3 | 9.6 | 0.00 | 0.58 | 0.49 | 92 | 998.0 |
| 20260505062600 | 40 | 296 | 3.5 | 9.6 | 0.00 | 0.58 | 0.49 | 92 | 998.0 |
| 20260505062502 | 40 | 293 | 7.0 | 7.8 | 0.00 | 0.58 | 0.49 | 92 | 998.1 |
| 20260505062359 | 40 | 292 | 4.3 | 6.1 | 0.00 | 0.58 | 0.49 | 92 | 998.2 |
| 20260505062159 | 40 | 302 | 1.7 | 6.1 | 0.00 | 0.58 | 0.49 | 91 | 998.2 |
| 20260505062059 | 40 | 302 | 2.6 | 6.1 | 0.00 | 0.58 | 0.49 | 91 | 998.2 |
| 20260505062004 | 40 | 302 | 2.6 | 6.1 | 0.00 | 0.58 | 0.49 | 91 | 998.3 |
| 20260505061900 | 40 | 299 | 0.0 | 6.1 | 0.00 | 0.58 | 0.49 | 91 | 998.2 |
| 20260505061659 | 40 | 306 | 2.6 | 6.1 | 0.00 | 0.58 | 0.49 | 91 | 998.1 |
| 20260505061559 | 40 | 299 | 2.6 | 6.1 | 0.00 | 0.58 | 0.49 | 90 | 998.2 |
| 20260505061504 | 40 | 290 | 4.3 | 6.1 | 0.00 | 0.58 | 0.49 | 91 | 998.2 |
| 20260505061358 | 40 | 234 | 2.6 | 4.3 | 0.00 | 0.58 | 0.49 | 91 | 998.2 |
| 20260505061259 | 40 | 233 | 0.9 | 4.3 | 0.00 | 0.58 | 0.49 | 90 | 998.2 |
| 20260505061159 | 40 | 233 | 1.7 | 4.3 | 0.00 | 0.58 | 0.49 | 90 | 998.2 |
| 20260505061059 | 40 | 233 | 0.9 | 4.3 | 0.00 | 0.58 | 0.49 | 90 | 998.2 |
| 20260505061000 | 40 | 275 | 2.6 | 4.3 | 0.00 | 0.58 | 0.49 | 90 | 998.1 |
| 20260505060859 | 40 | 344 | 2.6 | 4.3 | 0.00 | 0.58 | 0.49 | 90 | 998.1 |
| 20260505060759 | 40 | 348 | 0.9 | 4.3 | 0.00 | 0.58 | 0.49 | 90 | 998.1 |
| 20260505060659 | 40 | 349 | 0.9 | 4.3 | 0.00 | 0.58 | 0.49 | 91 | 998.0 |
| 20260505060400 | 40 | 349 | 0.9 | 4.3 | 0.00 | 0.58 | 0.49 | 91 | 998.3 |
| 20260505060259 | 40 | 42 | 2.6 | 3.5 | 0.00 | 0.58 | 0.49 | 91 | 998.5 |
| 20260505060158 | 40 | 55 | 2.6 | 2.6 | 0.00 | 0.58 | 0.49 | 91 | 998.4 |
| 20260505060058 | 40 | 55 | 0.0 | 2.6 | 0.00 | 0.58 | 0.49 | 91 | 998.3 |
| 20260505060004 | 40 | 55 | 0.0 | 3.5 | 0.00 | 0.58 | 0.49 | 91 | 998.3 |
| 20260505055859 | 40 | 55 | 0.9 | 6.1 | 0.00 | 0.62 | 0.49 | 91 | 998.4 |
| 20260505055758 | 40 | 281 | 1.7 | 6.1 | 0.00 | 0.62 | 0.49 | 91 | 998.3 |
| 20260505055658 | 40 | 280 | 1.7 | 6.1 | 0.00 | 0.62 | 0.49 | 91 | 998.3 |
| 20260505055505 | 40 | 277 | 2.6 | 6.1 | 0.00 | 0.62 | 0.49 | 90 | 998.4 |
| 20260505055258 | 41 | 271 | 0.9 | 6.1 | 0.00 | 0.62 | 0.49 | 90 | 998.4 |
| 20260505055158 | 41 | 270 | 2.6 | 6.1 | 0.00 | 0.62 | 0.49 | 89 | 998.3 |
| 20260505055059 | 41 | 269 | 3.5 | 6.1 | 0.00 | 0.62 | 0.49 | 89 | 998.3 |
| 20260505055004 | 41 | 268 | 6.1 | 6.1 | 0.00 | 0.62 | 0.49 | 89 | 998.4 |
| 20260505054859 | 41 | 301 | 1.7 | 7.8 | 0.00 | 0.62 | 0.49 | 89 | 998.5 |
| 20260505054758 | 41 | 301 | 0.9 | 10.4 | 0.00 | 0.62 | 0.49 | 88 | 998.4 |
| 20260505054659 | 41 | 301 | 1.7 | 10.4 | 0.00 | 0.62 | 0.49 | 88 | 998.4 |
| 20260505054559 | 41 | 309 | 1.7 | 10.4 | 0.00 | 0.62 | 0.49 | 88 | 998.4 |
| 20260505054501 | 41 | 295 | 1.7 | 10.4 | 0.00 | 0.62 | 0.49 | 88 | 998.4 |
| 20260505054359 | 41 | 296 | 1.7 | 10.4 | 0.00 | 0.62 | 0.49 | 87 | 998.4 |
| 20260505054258 | 42 | 298 | 2.6 | 10.4 | 0.00 | 0.62 | 0.49 | 87 | 998.4 |
| 20260505054200 | 42 | 313 | 0.9 | 10.4 | 0.00 | 0.62 | 0.49 | 87 | 998.4 |
| 20260505054059 | 42 | 309 | 1.7 | 10.4 | 0.00 | 0.62 | 0.49 | 86 | 998.3 |
| 20260505054005 | 42 | 253 | 7.8 | 10.4 | 0.00 | 0.62 | 0.49 | 86 | 998.5 |
| 20260505053859 | 42 | 314 | 3.5 | 9.6 | 0.00 | 0.62 | 0.49 | 86 | 998.7 |
| 20260505053658 | 42 | 112 | 7.0 | 7.8 | 0.00 | 0.62 | 0.49 | 85 | 998.5 |
| 20260505053559 | 42 | 120 | 4.3 | 7.0 | 0.00 | 0.62 | 0.49 | 85 | 998.4 |
| 20260505053459 | 42 | 146 | 2.6 | 7.0 | 0.00 | 0.62 | 0.49 | 84 | 998.3 |
| 20260505053359 | 42 | 209 | 1.7 | 7.0 | 0.00 | 0.62 | 0.49 | 84 | 998.2 |
| 20260505053300 | 43 | 304 | 1.7 | 7.0 | 0.00 | 0.62 | 0.49 | 83 | 998.2 |
| 20260505053159 | 43 | 294 | 2.6 | 4.3 | 0.00 | 0.62 | 0.49 | 83 | 998.2 |
| 20260505053001 | 43 | 294 | 1.7 | 5.2 | 0.00 | 0.62 | 0.49 | 82 | 998.3 |
| 20260505052759 | 44 | 282 | 3.5 | 5.2 | 0.00 | 0.62 | 0.49 | 80 | 998.3 |
| 20260505052659 | 44 | 282 | 5.2 | 11.3 | 0.00 | 0.62 | 0.49 | 80 | 998.5 |
| 20260505052501 | 44 | 306 | 0.9 | 11.3 | 0.00 | 0.62 | 0.49 | 79 | 998.5 |
| 20260505052359 | 44 | 306 | 1.7 | 11.3 | 0.00 | 0.62 | 0.49 | 78 | 998.3 |
| 20260505052300 | 44 | 306 | 2.6 | 11.3 | 0.00 | 0.62 | 0.49 | 75 | 998.3 |
| 20260505052058 | 44 | 138 | 0.9 | 11.3 | 0.00 | 0.62 | 0.49 | 68 | 998.3 |
| 20260505052001 | 44 | 147 | 1.7 | 11.3 | 0.00 | 0.62 | 0.49 | 69 | 998.3 |
| 20260505051900 | 43 | 160 | 4.3 | 11.3 | 0.00 | 0.62 | 0.49 | 71 | 998.4 |
| 20260505051758 | 43 | 139 | 8.7 | 8.7 | 0.00 | 0.62 | 0.49 | 77 | 998.4 |
| 20260505051658 | 43 | 34 | 0.9 | 4.3 | 0.00 | 0.62 | 0.49 | 80 | 998.4 |
| 20260505051505 | 43 | 34 | 0.9 | 4.3 | 0.00 | 0.62 | 0.49 | 80 | 998.3 |
| 20260505051358 | 43 | 34 | 0.0 | 4.3 | 0.00 | 0.62 | 0.49 | 79 | 998.4 |
| 20260505051300 | 43 | 34 | 0.9 | 4.3 | 0.00 | 0.62 | 0.49 | 80 | 998.4 |
| 20260505051100 | 43 | 339 | 0.0 | 3.5 | 0.00 | 0.62 | 0.49 | 82 | 998.5 |
| 20260505050858 | 43 | 339 | 0.0 | 3.5 | 0.00 | 0.62 | 0.49 | 82 | 998.6 |
| 20260505050758 | 43 | 339 | 1.7 | 4.3 | 0.00 | 0.62 | 0.49 | 83 | 998.5 |
| 20260505050659 | 43 | 332 | 1.7 | 5.2 | 0.00 | 0.62 | 0.49 | 82 | 998.5 |
| 20260505050504 | 43 | 254 | 2.6 | 5.2 | 0.00 | 0.62 | 0.49 | 81 | 998.6 |
| 20260505050359 | 43 | 248 | 2.6 | 5.2 | 0.00 | 0.62 | 0.49 | 81 | 998.7 |
| 20260505050258 | 43 | 140 | 1.7 | 5.2 | 0.00 | 0.62 | 0.49 | 80 | 998.7 |
| 20260505050159 | 43 | 51 | 0.0 | 5.2 | 0.00 | 0.62 | 0.49 | 79 | 998.6 |
| 20260505041658 | 48 | 12 | 7.8 | 12.2 | 0.00 | 0.64 | 0.49 | 59 | 999.2 |
| 20260505041558 | 48 | 84 | 0.9 | 12.2 | 0.00 | 0.64 | 0.49 | 58 | 999.2 |
| 20260505041500 | 48 | 128 | 4.3 | 12.2 | 0.00 | 0.64 | 0.49 | 58 | 999.2 |
| 20260505041358 | 48 | 117 | 6.1 | 12.2 | 0.00 | 0.64 | 0.49 | 58 | 999.3 |
| 20260505041258 | 48 | 115 | 6.1 | 12.2 | 0.00 | 0.64 | 0.49 | 59 | 999.3 |
| 20260505041158 | 48 | 78 | 4.3 | 12.2 | 0.00 | 0.64 | 0.49 | 58 | 999.3 |
| 20260505041059 | 48 | 61 | 5.2 | 12.2 | 0.00 | 0.64 | 0.49 | 58 | 999.3 |
| 20260505041000 | 48 | 97 | 8.7 | 12.2 | 0.00 | 0.64 | 0.49 | 58 | 999.3 |
| 20260505040758 | 48 | 142 | 7.8 | 10.4 | 0.00 | 0.64 | 0.49 | 59 | 999.3 |
| 20260505040659 | 48 | 165 | 4.3 | 10.4 | 0.00 | 0.64 | 0.49 | 59 | 999.3 |
| 20260505040559 | 48 | 170 | 7.0 | 11.3 | 0.00 | 0.64 | 0.49 | 59 | 999.4 |
| 20260505040500 | 48 | 150 | 7.0 | 11.3 | 0.00 | 0.64 | 0.49 | 59 | 999.4 |
| 20260505040359 | 48 | 163 | 4.3 | 9.6 | 0.00 | 0.64 | 0.49 | 59 | 999.3 |
| 20260505040259 | 49 | 136 | 1.7 | 9.6 | 0.00 | 0.64 | 0.49 | 59 | 999.4 |
| 20260505040158 | 49 | 59 | 5.2 | 9.6 | 0.00 | 0.64 | 0.49 | 59 | 999.4 |
| 20260505040058 | 49 | 65 | 5.2 | 9.6 | 0.00 | 0.64 | 0.49 | 58 | 999.4 |
| 20260505035859 | 49 | 178 | 3.5 | 12.2 | 0.00 | 0.67 | 0.49 | 59 | 999.5 |
| 20260505035758 | 49 | 136 | 4.3 | 12.2 | 0.00 | 0.67 | 0.49 | 59 | 999.5 |
| 20260505035700 | 49 | 124 | 6.1 | 12.2 | 0.00 | 0.67 | 0.49 | 59 | 999.5 |
| 20260505035558 | 49 | 87 | 2.6 | 12.2 | 0.00 | 0.67 | 0.49 | 59 | 999.5 |
| 20260505035505 | 49 | 130 | 4.3 | 12.2 | 0.00 | 0.67 | 0.49 | 59 | 999.6 |
| 20260505035258 | 49 | 93 | 6.1 | 12.2 | 0.00 | 0.67 | 0.49 | 58 | 999.5 |
| 20260505035159 | 49 | 117 | 9.6 | 12.2 | 0.00 | 0.67 | 0.49 | 58 | 999.6 |
| 20260505035100 | 49 | 91 | 0.9 | 12.2 | 0.00 | 0.67 | 0.49 | 59 | 999.6 |
| 20260505035004 | 49 | 92 | 3.5 | 12.2 | 0.00 | 0.67 | 0.49 | 58 | 999.6 |
| 20260505034858 | 49 | 54 | 8.7 | 15.6 | 0.00 | 0.67 | 0.49 | 58 | 999.6 |
| 20260505034800 | 49 | 94 | 8.7 | 15.6 | 0.00 | 0.67 | 0.49 | 59 | 999.7 |
| 20260505034659 | 49 | 172 | 11.3 | 15.6 | 0.00 | 0.67 | 0.49 | 59 | 999.8 |
| 20260505034558 | 49 | 115 | 10.4 | 15.6 | 0.00 | 0.67 | 0.49 | 60 | 999.8 |
| 20260505034503 | 49 | 111 | 6.1 | 15.6 | 0.00 | 0.67 | 0.49 | 60 | 999.7 |
| 20260505034359 | 48 | 113 | 2.6 | 15.6 | 0.00 | 0.67 | 0.49 | 60 | 999.8 |
| 20260505034258 | 48 | 116 | 8.7 | 18.2 | 0.00 | 0.67 | 0.49 | 59 | 999.8 |
| 20260505034158 | 48 | 146 | 5.2 | 18.2 | 0.00 | 0.67 | 0.49 | 59 | 999.6 |
| 20260505034059 | 48 | 139 | 7.0 | 20.0 | 0.00 | 0.67 | 0.49 | 59 | 999.6 |
| 20260505034000 | 48 | 157 | 13.0 | 20.0 | 0.00 | 0.67 | 0.49 | 59 | 999.6 |
| 20260505033900 | 48 | 104 | 8.7 | 20.0 | 0.00 | 0.67 | 0.49 | 59 | 999.7 |
| 20260505033759 | 48 | 149 | 7.0 | 20.0 | 0.00 | 0.67 | 0.49 | 59 | 999.8 |
| 20260505033659 | 49 | 146 | 9.6 | 20.0 | 0.00 | 0.67 | 0.49 | 59 | 999.8 |
| 20260505033558 | 49 | 140 | 6.1 | 20.0 | 0.00 | 0.67 | 0.49 | 59 | 999.8 |
| 20260505033359 | 49 | 142 | 5.2 | 20.0 | 0.00 | 0.67 | 0.49 | 58 | 999.8 |
| 20260505033300 | 49 | 162 | 7.0 | 20.0 | 0.00 | 0.67 | 0.49 | 58 | 999.9 |
| 20260505033058 | 49 | 125 | 7.0 | 22.6 | 0.00 | 0.67 | 0.49 | 59 | 999.8 |
| 20260505033005 | 49 | 123 | 3.5 | 22.6 | 0.00 | 0.67 | 0.49 | 59 | 999.8 |
| 20260505032859 | 49 | 136 | 2.6 | 22.6 | 0.00 | 0.67 | 0.49 | 58 | 999.9 |
| 20260505032758 | 49 | 157 | 9.6 | 22.6 | 0.00 | 0.67 | 0.49 | 58 | 999.9 |
| 20260505032558 | 49 | 123 | 8.7 | 22.6 | 0.00 | 0.67 | 0.49 | 57 | 999.9 |
| 20260505032359 | 49 | 168 | 8.7 | 22.6 | 0.00 | 0.67 | 0.49 | 56 | 1000.0 |
| 20260505032259 | 49 | 159 | 4.3 | 18.2 | 0.00 | 0.67 | 0.49 | 56 | 1000.0 |
| 20260505032159 | 49 | 166 | 8.7 | 18.2 | 0.00 | 0.67 | 0.49 | 57 | 1000.0 |
| 20260505032059 | 49 | 129 | 8.7 | 18.2 | 0.00 | 0.67 | 0.49 | 57 | 1000.0 |
| 20260505032001 | 50 | 124 | 15.6 | 18.2 | 0.00 | 0.67 | 0.49 | 57 | 1000.0 |
| 20260505031858 | 50 | 143 | 3.5 | 18.2 | 0.00 | 0.67 | 0.49 | 57 | 999.9 |
| 20260505031759 | 49 | 123 | 6.1 | 18.2 | 0.00 | 0.67 | 0.49 | 56 | 1000.1 |
| 20260505031559 | 50 | 146 | 11.3 | 24.3 | 0.00 | 0.67 | 0.49 | 56 | 1000.1 |
| 20260505031500 | 50 | 144 | 12.2 | 24.3 | 0.00 | 0.67 | 0.49 | 56 | 1000.1 |
| 20260505031400 | 50 | 107 | 6.1 | 24.3 | 0.00 | 0.67 | 0.49 | 56 | 1000.0 |
| 20260505031259 | 50 | 102 | 7.8 | 26.1 | 0.00 | 0.67 | 0.49 | 56 | 1000.1 |
| 20260505031158 | 50 | 119 | 13.9 | 26.1 | 0.00 | 0.67 | 0.49 | 56 | 1000.0 |
| 20260505031058 | 50 | 100 | 8.7 | 26.1 | 0.00 | 0.67 | 0.49 | 57 | 999.9 |
| 20260505030859 | 50 | 190 | 5.2 | 26.1 | 0.00 | 0.67 | 0.49 | 57 | 999.9 |
| 20260505030658 | 49 | 167 | 7.8 | 26.1 | 0.00 | 0.67 | 0.49 | 56 | 1000.1 |
| 20260505030558 | 50 | 131 | 11.3 | 31.3 | 0.00 | 0.67 | 0.49 | 56 | 999.9 |
| 20260505030500 | 49 | 128 | 4.3 | 31.3 | 0.00 | 0.67 | 0.49 | 57 | 1000.1 |
| 20260505030258 | 49 | 129 | 7.0 | 31.3 | 0.00 | 0.67 | 0.49 | 56 | 1000.3 |
| 20260505030159 | 49 | 169 | 12.2 | 31.3 | 0.00 | 0.67 | 0.49 | 58 | 1000.3 |
| 20260505030059 | 49 | 159 | 8.7 | 31.3 | 0.00 | 0.67 | 0.49 | 58 | 1000.2 |
| 20260505030005 | 49 | 146 | 9.6 | 31.3 | 0.00 | 0.67 | 0.49 | 59 | 1000.1 |
| 20260505025859 | 49 | 136 | 10.4 | 31.3 | 0.00 | 0.67 | 0.49 | 58 | 1000.0 |
| 20260505025658 | 49 | 160 | 7.8 | 20.0 | 0.00 | 0.67 | 0.49 | 62 | 1000.2 |
| 20260505025558 | 48 | 108 | 10.4 | 20.0 | 0.00 | 0.67 | 0.49 | 63 | 1000.4 |
| 20260505025359 | 47 | 242 | 4.3 | 20.0 | 0.00 | 0.67 | 0.49 | 67 | 1000.4 |
| 20260505025259 | 46 | 170 | 7.0 | 20.0 | 0.00 | 0.67 | 0.49 | 68 | 1000.3 |
| 20260505025158 | 45 | 94 | 5.2 | 20.0 | 0.00 | 0.67 | 0.49 | 75 | 1000.3 |
| 20260505025059 | 44 | 142 | 14.8 | 20.9 | 0.00 | 0.67 | 0.49 | 83 | 1000.1 |
| 20260505025005 | 43 | 96 | 6.1 | 10.4 | 0.00 | 0.67 | 0.49 | 88 | 1000.5 |
| 20260505024859 | 43 | 80 | 0.9 | 7.0 | 0.00 | 0.67 | 0.49 | 88 | 1000.6 |
| 20260505024758 | 43 | 255 | 4.3 | 7.0 | 0.00 | 0.67 | 0.49 | 88 | 1000.6 |
| 20260505024658 | 43 | 281 | 3.5 | 7.0 | 0.00 | 0.67 | 0.49 | 88 | 1000.7 |
| 20260505024558 | 43 | 350 | 3.5 | 5.2 | 0.00 | 0.67 | 0.49 | 87 | 1000.7 |
| 20260505024500 | 43 | 205 | 4.3 | 5.2 | 0.00 | 0.67 | 0.49 | 87 | 1000.6 |
| 20260505024359 | 43 | 213 | 3.5 | 8.7 | 0.00 | 0.67 | 0.49 | 86 | 1000.6 |
| 20260505024259 | 43 | 192 | 3.5 | 8.7 | 0.00 | 0.67 | 0.49 | 86 | 1000.5 |
| 20260505024158 | 43 | 323 | 2.6 | 8.7 | 0.00 | 0.67 | 0.49 | 85 | 1000.7 |
| 20260505024000 | 44 | 299 | 0.9 | 10.4 | 0.00 | 0.67 | 0.49 | 84 | 1000.8 |
| 20260505023859 | 44 | 310 | 2.6 | 10.4 | 0.00 | 0.67 | 0.49 | 83 | 1001.0 |
| 20260505023658 | 45 | 304 | 4.3 | 14.8 | 0.00 | 0.67 | 0.49 | 81 | 1000.9 |
| 20260505023459 | 46 | 10 | 4.3 | 19.1 | 0.00 | 0.67 | 0.49 | 78 | 1000.9 |
| 20260505023358 | 47 | 15 | 8.7 | 19.1 | 0.00 | 0.67 | 0.49 | 75 | 1000.7 |
| 20260505023258 | 48 | 302 | 4.3 | 19.1 | 0.00 | 0.67 | 0.49 | 71 | 1000.9 |
| 20260505023159 | 49 | 261 | 7.0 | 19.1 | 0.00 | 0.67 | 0.49 | 68 | 1001.0 |
| 20260505023058 | 50 | 341 | 7.0 | 19.1 | 0.00 | 0.67 | 0.49 | 59 | 1001.0 |
| 20260505023000 | 50 | 66 | 11.3 | 31.3 | 0.00 | 0.67 | 0.49 | 59 | 1000.8 |
| 20260505022758 | 50 | 59 | 7.8 | 31.3 | 0.00 | 0.67 | 0.49 | 56 | 1000.6 |
| 20260505022659 | 50 | 145 | 10.4 | 31.3 | 0.00 | 0.67 | 0.49 | 55 | 1000.6 |
| 20260505022559 | 50 | 155 | 9.6 | 31.3 | 0.00 | 0.67 | 0.49 | 56 | 1000.6 |
| 20260505022500 | 50 | 67 | 7.8 | 31.3 | 0.00 | 0.67 | 0.49 | 56 | 1000.4 |
| 20260505022258 | 50 | 112 | 10.4 | 31.3 | 0.00 | 0.67 | 0.49 | 57 | 1000.4 |
| 20260505022058 | 50 | 151 | 26.1 | 29.5 | 0.00 | 0.67 | 0.49 | 55 | 1000.6 |
| 20260505022000 | 50 | 151 | 15.6 | 29.5 | 0.00 | 0.67 | 0.49 | 57 | 1000.7 |
| 20260505021859 | 50 | 182 | 4.3 | 29.5 | 0.00 | 0.67 | 0.49 | 58 | 1000.8 |
| 20260505021759 | 50 | 128 | 20.0 | 31.3 | 0.00 | 0.67 | 0.49 | 56 | 1000.4 |
| 20260505021659 | 50 | 122 | 16.5 | 31.3 | 0.00 | 0.67 | 0.49 | 58 | 1000.5 |
| 20260505021504 | 50 | 93 | 21.7 | 31.3 | 0.00 | 0.67 | 0.49 | 58 | 1000.5 |
| 20260505021358 | 50 | 123 | 12.2 | 31.3 | 0.00 | 0.67 | 0.49 | 56 | 1000.6 |
| 20260505021259 | 50 | 130 | 20.9 | 32.2 | 0.00 | 0.67 | 0.49 | 58 | 1000.6 |
| 20260505021201 | 50 | 160 | 5.2 | 31.3 | 0.00 | 0.67 | 0.49 | 59 | 1000.6 |
| 20260505021058 | 50 | 190 | 2.6 | 31.3 | 0.00 | 0.67 | 0.49 | 59 | 1000.6 |
| 20260505021005 | 50 | 108 | 8.7 | 31.3 | 0.00 | 0.67 | 0.49 | 59 | 1001.0 |
| 20260505020858 | 50 | 169 | 8.7 | 24.3 | 0.00 | 0.67 | 0.49 | 60 | 1000.6 |
| 20260505020758 | 50 | 174 | 9.6 | 24.3 | 0.00 | 0.67 | 0.49 | 59 | 1000.7 |
| 20260505020659 | 50 | 129 | 10.4 | 24.3 | 0.00 | 0.67 | 0.49 | 60 | 1000.7 |
| 20260505020600 | 49 | 148 | 12.2 | 24.3 | 0.00 | 0.67 | 0.49 | 62 | 1000.6 |
| 20260505020359 | 49 | 161 | 13.0 | 22.6 | 0.00 | 0.67 | 0.49 | 63 | 1000.6 |
| 20260505020159 | 48 | 92 | 1.7 | 22.6 | 0.00 | 0.67 | 0.49 | 64 | 1000.6 |
| 20260505020059 | 48 | 159 | 8.7 | 22.6 | 0.00 | 0.67 | 0.49 | 66 | 1000.7 |
| 20260505020000 | 48 | 142 | 11.3 | 22.6 | 0.00 | 0.67 | 0.49 | 68 | 1000.7 |
| 20260505015858 | 47 | 182 | 10.4 | 22.6 | 0.00 | 0.67 | 0.49 | 76 | 1000.8 |
| 20260505015758 | 47 | 121 | 21.7 | 21.7 | 0.00 | 0.67 | 0.49 | 77 | 1000.8 |
| 20260505015659 | 46 | 151 | 1.7 | 16.5 | 0.00 | 0.67 | 0.49 | 79 | 1001.0 |
| 20260505015559 | 46 | 128 | 7.0 | 16.5 | 0.00 | 0.67 | 0.49 | 82 | 1001.0 |
| 20260505015504 | 45 | 62 | 8.7 | 16.5 | 0.00 | 0.67 | 0.49 | 82 | 1000.9 |
| 20260505015358 | 44 | 114 | 13.9 | 16.5 | 0.00 | 0.67 | 0.49 | 84 | 1001.0 |
| 20260505015258 | 43 | 142 | 11.3 | 12.2 | 0.00 | 0.67 | 0.49 | 89 | 1001.0 |
| 20260505015159 | 43 | 127 | 0.9 | 12.2 | 0.00 | 0.67 | 0.49 | 96 | 1001.1 |
| 20260505015059 | 43 | 43 | 1.7 | 12.2 | 0.00 | 0.67 | 0.49 | 96 | 1001.0 |
| 20260505015002 | 42 | 80 | 4.3 | 12.2 | 0.00 | 0.67 | 0.49 | 96 | 1001.1 |
| 20260505014758 | 42 | 123 | 3.5 | 12.2 | 0.00 | 0.67 | 0.49 | 96 | 1001.2 |
| 20260505014659 | 42 | 165 | 6.1 | 12.2 | 0.00 | 0.67 | 0.49 | 96 | 1001.3 |
| 20260505014559 | 42 | 136 | 7.0 | 7.0 | 0.00 | 0.67 | 0.49 | 96 | 1001.4 |
| 20260505014501 | 42 | 140 | 2.6 | 3.5 | 0.00 | 0.67 | 0.49 | 96 | 1001.4 |
| 20260505014358 | 41 | 83 | 2.6 | 7.0 | 0.00 | 0.67 | 0.49 | 96 | 1001.3 |
| 20260505014259 | 41 | 60 | 0.0 | 7.0 | 0.00 | 0.67 | 0.49 | 96 | 1001.5 |
| 20260505014159 | 41 | 59 | 0.9 | 7.0 | 0.00 | 0.67 | 0.49 | 96 | 1001.5 |
| 20260505014000 | 41 | 32 | 1.7 | 7.0 | 0.00 | 0.67 | 0.49 | 96 | 1001.5 |
| 20260505013858 | 40 | 31 | 0.9 | 7.0 | 0.00 | 0.67 | 0.49 | 96 | 1001.5 |
| 20260505013758 | 40 | 32 | 0.0 | 7.0 | 0.00 | 0.67 | 0.49 | 96 | 1001.5 |
| 20260505013659 | 40 | 32 | 1.7 | 7.0 | 0.00 | 0.67 | 0.49 | 96 | 1001.5 |
| 20260505013559 | 40 | 32 | 1.7 | 7.0 | 0.00 | 0.67 | 0.49 | 96 | 1001.6 |
| 20260505013459 | 40 | 32 | 4.3 | 7.0 | 0.00 | 0.67 | 0.49 | 96 | 1001.5 |
| 20260505013358 | 40 | 343 | 1.7 | 7.0 | 0.00 | 0.67 | 0.49 | 96 | 1001.7 |
| 20260505013258 | 40 | 342 | 3.5 | 7.0 | 0.00 | 0.67 | 0.49 | 96 | 1001.8 |
| 20260505013001 | 40 | 360 | 3.5 | 7.0 | 0.00 | 0.67 | 0.49 | 96 | 1001.8 |
| 20260505012859 | 40 | 316 | 3.5 | 7.0 | 0.00 | 0.67 | 0.49 | 96 | 1001.8 |
| 20260505012759 | 40 | 294 | 1.7 | 7.0 | 0.00 | 0.67 | 0.49 | 96 | 1001.9 |
| 20260505012658 | 40 | 290 | 2.6 | 7.0 | 0.00 | 0.67 | 0.49 | 96 | 1002.0 |
| 20260505012558 | 41 | 310 | 3.5 | 7.0 | 0.00 | 0.67 | 0.49 | 96 | 1002.1 |
| 20260505012505 | 41 | 321 | 1.7 | 7.0 | 0.00 | 0.67 | 0.49 | 96 | 1002.0 |
| 20260505012158 | 40 | 271 | 3.5 | 7.0 | 0.00 | 0.67 | 0.49 | 96 | 1002.1 |
| 20260505012059 | 40 | 289 | 4.3 | 7.0 | 0.00 | 0.67 | 0.49 | 96 | 1002.2 |
| 20260505012001 | 40 | 317 | 5.2 | 7.0 | 0.00 | 0.67 | 0.49 | 96 | 1002.3 |
| 20260505011859 | 40 | 331 | 2.6 | 7.0 | 0.00 | 0.67 | 0.49 | 96 | 1002.4 |
| 20260505011758 | 40 | 331 | 2.6 | 7.0 | 0.00 | 0.67 | 0.49 | 96 | 1002.3 |
| 20260505011500 | 41 | 294 | 2.6 | 7.0 | 0.00 | 0.67 | 0.49 | 96 | 1002.1 |
| 20260505011359 | 41 | 300 | 6.1 | 6.1 | 0.00 | 0.67 | 0.49 | 96 | 1002.2 |
| 20260505011258 | 41 | 316 | 0.9 | 5.2 | 0.00 | 0.67 | 0.49 | 96 | 1002.3 |
| 20260505011158 | 41 | 280 | 0.0 | 5.2 | 0.00 | 0.67 | 0.49 | 96 | 1002.2 |
| 20260505011059 | 41 | 277 | 2.6 | 5.2 | 0.00 | 0.67 | 0.49 | 96 | 1002.2 |
| 20260505010859 | 40 | 213 | 1.7 | 5.2 | 0.00 | 0.67 | 0.49 | 96 | 1002.6 |
| 20260505010801 | 40 | 169 | 1.7 | 5.2 | 0.00 | 0.67 | 0.49 | 96 | 1002.6 |
| 20260505010659 | 40 | 150 | 2.6 | 5.2 | 0.00 | 0.67 | 0.49 | 96 | 1002.7 |
| 20260505010559 | 40 | 127 | 2.6 | 4.3 | 0.00 | 0.67 | 0.49 | 96 | 1002.7 |
| 20260505010504 | 40 | 130 | 3.5 | 4.3 | 0.00 | 0.67 | 0.49 | 96 | 1002.7 |
| 20260505010359 | 40 | 174 | 2.6 | 4.3 | 0.00 | 0.67 | 0.49 | 96 | 1002.7 |
| 20260505010259 | 40 | 162 | 1.7 | 4.3 | 0.00 | 0.67 | 0.49 | 96 | 1002.8 |
| 20260505005958 | 40 | 142 | 2.6 | 4.3 | 0.00 | 0.67 | 0.49 | 96 | 1002.8 |
| 20260505005857 | 40 | 355 | 0.0 | 4.3 | 0.00 | 0.67 | 0.49 | 96 | 1002.7 |
| 20260505005757 | 40 | 355 | 0.0 | 4.3 | 0.00 | 0.67 | 0.49 | 95 | 1002.9 |
| 20260505005658 | 40 | 355 | 0.9 | 4.3 | 0.00 | 0.67 | 0.49 | 95 | 1002.9 |
| 20260505005556 | 40 | 355 | 0.9 | 4.3 | 0.00 | 0.67 | 0.49 | 95 | 1002.9 |
| 20260505005459 | 40 | 355 | 3.5 | 4.3 | 0.00 | 0.67 | 0.49 | 95 | 1002.9 |
| 20260505005357 | 40 | 346 | 0.9 | 4.3 | 0.00 | 0.67 | 0.49 | 95 | 1002.9 |
| 20260505005258 | 40 | 355 | 2.6 | 4.3 | 0.00 | 0.67 | 0.49 | 96 | 1003.1 |
| 20260505005158 | 40 | 11 | 0.0 | 8.7 | 0.00 | 0.67 | 0.49 | 96 | 1003.1 |
| 20260505005057 | 40 | 11 | 2.6 | 9.6 | 0.00 | 0.67 | 0.49 | 96 | 1003.2 |
| 20260505004858 | 40 | 311 | 2.6 | 9.6 | 0.00 | 0.67 | 0.49 | 96 | 1003.2 |
| 20260505004757 | 40 | 311 | 1.7 | 9.6 | 0.00 | 0.67 | 0.49 | 95 | 1003.2 |
| 20260505004358 | 40 | 275 | 5.2 | 11.3 | 0.00 | 0.67 | 0.49 | 95 | 1002.9 |
| 20260505004258 | 40 | 311 | 4.3 | 13.0 | 0.00 | 0.67 | 0.49 | 95 | 1003.0 |
| 20260505004157 | 40 | 319 | 5.2 | 13.0 | 0.00 | 0.67 | 0.49 | 95 | 1003.2 |
| 20260505004057 | 40 | 312 | 5.2 | 13.0 | 0.00 | 0.67 | 0.49 | 95 | 1003.1 |
| 20260505003959 | 40 | 334 | 2.6 | 13.0 | 0.00 | 0.67 | 0.49 | 95 | 1003.1 |
| 20260505003757 | 40 | 342 | 8.7 | 13.0 | 0.00 | 0.67 | 0.49 | 95 | 1002.9 |
| 20260505003558 | 40 | 318 | 7.0 | 13.0 | 0.00 | 0.67 | 0.49 | 95 | 1002.7 |
| 20260505003459 | 40 | 285 | 8.7 | 13.0 | 0.00 | 0.67 | 0.49 | 95 | 1002.7 |
| 20260505003358 | 40 | 326 | 4.3 | 12.2 | 0.00 | 0.67 | 0.49 | 95 | 1002.7 |
| 20260505003157 | 40 | 279 | 8.7 | 12.2 | 0.00 | 0.67 | 0.49 | 95 | 1002.6 |
| 20260505003057 | 40 | 297 | 11.3 | 12.2 | 0.00 | 0.67 | 0.49 | 95 | 1002.7 |
| 20260505002959 | 40 | 292 | 7.8 | 12.2 | 0.00 | 0.67 | 0.49 | 95 | 1003.0 |
| 20260505002757 | 40 | 12 | 6.1 | 12.2 | 0.00 | 0.67 | 0.49 | 95 | 1002.9 |
| 20260505002658 | 40 | 309 | 6.1 | 12.2 | 0.00 | 0.67 | 0.49 | 96 | 1002.5 |
| 20260505002558 | 40 | 300 | 9.6 | 12.2 | 0.00 | 0.67 | 0.49 | 96 | 1002.5 |
| 20260505002501 | 40 | 281 | 6.1 | 12.2 | 0.00 | 0.67 | 0.49 | 96 | 1002.6 |
| 20260505002257 | 40 | 323 | 1.7 | 9.6 | 0.00 | 0.67 | 0.49 | 96 | 1003.1 |
| 20260505002156 | 40 | 304 | 1.7 | 9.6 | 0.00 | 0.67 | 0.49 | 96 | 1003.0 |
| 20260505002057 | 40 | 308 | 4.3 | 9.6 | 0.00 | 0.67 | 0.49 | 96 | 1003.0 |
| 20260505001959 | 40 | 295 | 6.1 | 9.6 | 0.00 | 0.67 | 0.49 | 96 | 1002.9 |
| 20260505001757 | 40 | 335 | 3.5 | 9.6 | 0.00 | 0.67 | 0.49 | 95 | 1002.8 |
| 20260505001657 | 40 | 319 | 5.2 | 9.6 | 0.00 | 0.67 | 0.49 | 95 | 1002.6 |
| 20260505001557 | 40 | 317 | 7.8 | 9.6 | 0.00 | 0.67 | 0.49 | 95 | 1002.9 |
| 20260505001500 | 40 | 311 | 5.2 | 9.6 | 0.00 | 0.67 | 0.49 | 95 | 1003.2 |
| 20260505001357 | 40 | 329 | 5.2 | 9.6 | 0.00 | 0.67 | 0.49 | 95 | 1003.2 |
| 20260505001257 | 40 | 300 | 3.5 | 9.6 | 0.00 | 0.67 | 0.49 | 95 | 1003.2 |
| 20260505001158 | 40 | 323 | 2.6 | 9.6 | 0.00 | 0.67 | 0.49 | 95 | 1003.2 |
| 20260505001056 | 40 | 355 | 2.6 | 9.6 | 0.00 | 0.67 | 0.49 | 95 | 1003.3 |
| 20260505000858 | 40 | 348 | 3.5 | 9.6 | 0.00 | 0.67 | 0.49 | 96 | 1003.2 |
| 20260505000757 | 40 | 278 | 3.5 | 9.6 | 0.00 | 0.67 | 0.49 | 96 | 1003.1 |
| 20260505000657 | 40 | 287 | 3.5 | 9.6 | 0.00 | 0.67 | 0.49 | 95 | 1003.1 |
| 20260505000557 | 40 | 293 | 4.3 | 7.0 | 0.00 | 0.67 | 0.49 | 95 | 1003.3 |
| 20260505000458 | 40 | 360 | 0.0 | 7.0 | 0.00 | 0.67 | 0.49 | 95 | 1003.5 |
| 20260505000358 | 40 | 360 | 0.9 | 7.0 | 0.00 | 0.67 | 0.49 | 95 | 1003.6 |
| 20260505000259 | 40 | 355 | 0.0 | 7.8 | 0.00 | 0.67 | 0.49 | 95 | 1003.6 |
| 20260505000158 | 40 | 355 | 3.5 | 7.8 | 0.00 | 0.67 | 0.49 | 95 | 1003.5 |
| 20260505000058 | 40 | 355 | 2.6 | 7.8 | 0.00 | 0.67 | 0.49 | 95 | 1003.7 |
| 20260505000003 | 39 | 355 | 1.7 | 7.8 | 0.00 | 0.67 | 0.49 | 95 | 1003.7 |
| 20260504235858 | 39 | 355 | 0.9 | 7.8 | 0.00 | 0.67 | 0.49 | 95 | 1003.7 |
| 20260504235759 | 39 | 355 | 4.3 | 7.8 | 0.00 | 0.67 | 0.49 | 95 | 1003.6 |
| 20260504235459 | 39 | 327 | 7.0 | 7.8 | 0.00 | 0.67 | 0.49 | 95 | 1003.9 |
| 20260504235358 | 40 | 342 | 3.5 | 9.6 | 0.00 | 0.67 | 0.49 | 95 | 1004.0 |
| 20260504235259 | 40 | 342 | 3.5 | 9.6 | 0.00 | 0.67 | 0.49 | 95 | 1004.0 |
| 20260504235158 | 40 | 346 | 3.5 | 9.6 | 0.00 | 0.67 | 0.49 | 95 | 1004.0 |
| 20260504235058 | 40 | 5 | 1.7 | 9.6 | 0.00 | 0.67 | 0.49 | 95 | 1004.0 |
| 20260504234859 | 40 | 317 | 2.6 | 9.6 | 0.00 | 0.67 | 0.49 | 95 | 1003.9 |
| 20260504234758 | 40 | 317 | 2.6 | 9.6 | 0.00 | 0.67 | 0.49 | 95 | 1004.0 |
| 20260504234659 | 40 | 321 | 0.9 | 9.6 | 0.00 | 0.67 | 0.49 | 95 | 1003.9 |
| 20260504234559 | 40 | 323 | 2.6 | 9.6 | 0.00 | 0.67 | 0.49 | 95 | 1003.9 |
| 20260504234502 | 40 | 315 | 4.3 | 7.0 | 0.00 | 0.67 | 0.49 | 95 | 1004.0 |
| 20260504234257 | 40 | 302 | 2.6 | 7.8 | 0.00 | 0.67 | 0.49 | 95 | 1004.4 |
| 20260504234158 | 40 | 300 | 0.9 | 7.8 | 0.00 | 0.67 | 0.49 | 95 | 1004.3 |
| 20260504233959 | 40 | 271 | 5.2 | 7.8 | 0.00 | 0.67 | 0.49 | 95 | 1004.3 |
| 20260504233858 | 40 | 275 | 3.5 | 7.8 | 0.00 | 0.67 | 0.49 | 95 | 1004.3 |
| 20260504233758 | 40 | 294 | 0.9 | 7.8 | 0.00 | 0.67 | 0.49 | 95 | 1004.3 |
| 20260504233658 | 40 | 355 | 3.5 | 7.8 | 0.00 | 0.67 | 0.49 | 95 | 1004.3 |
| 20260504233558 | 40 | 340 | 7.0 | 7.8 | 0.00 | 0.67 | 0.49 | 95 | 1004.3 |
| 20260504233500 | 40 | 325 | 4.3 | 7.0 | 0.00 | 0.67 | 0.49 | 95 | 1004.3 |
| 20260504233359 | 40 | 319 | 3.5 | 7.0 | 0.00 | 0.67 | 0.49 | 95 | 1004.4 |
| 20260504233258 | 40 | 309 | 3.5 | 7.0 | 0.00 | 0.67 | 0.49 | 95 | 1004.5 |
| 20260504233159 | 40 | 274 | 5.2 | 7.0 | 0.00 | 0.67 | 0.49 | 95 | 1004.5 |
| 20260504233059 | 40 | 313 | 4.3 | 7.0 | 0.00 | 0.67 | 0.49 | 95 | 1004.3 |
| 20260504232858 | 40 | 287 | 0.9 | 7.0 | 0.00 | 0.67 | 0.49 | 95 | 1004.6 |
| 20260504232659 | 40 | 287 | 0.0 | 7.0 | 0.00 | 0.67 | 0.49 | 95 | 1004.4 |
| 20260504232559 | 40 | 276 | 2.6 | 7.0 | 0.00 | 0.67 | 0.49 | 95 | 1004.4 |
| 20260504232501 | 40 | 287 | 4.3 | 7.0 | 0.00 | 0.67 | 0.49 | 95 | 1004.4 |
| 20260504232357 | 40 | 294 | 2.6 | 7.8 | 0.00 | 0.67 | 0.49 | 95 | 1004.4 |
| 20260504232258 | 40 | 304 | 4.3 | 7.8 | 0.00 | 0.67 | 0.49 | 95 | 1004.5 |
| 20260504232159 | 40 | 296 | 4.3 | 8.7 | 0.00 | 0.67 | 0.49 | 95 | 1004.5 |
| 20260504232058 | 40 | 302 | 2.6 | 8.7 | 0.00 | 0.67 | 0.49 | 95 | 1004.5 |
| 20260504232000 | 40 | 303 | 2.6 | 8.7 | 0.00 | 0.67 | 0.49 | 95 | 1004.6 |
| 20260504231858 | 40 | 302 | 2.6 | 8.7 | 0.00 | 0.67 | 0.49 | 95 | 1004.6 |
| 20260504231659 | 40 | 288 | 1.7 | 8.7 | 0.00 | 0.67 | 0.49 | 95 | 1004.6 |
| 20260504231559 | 40 | 307 | 4.3 | 8.7 | 0.00 | 0.67 | 0.49 | 95 | 1004.7 |
| 20260504231500 | 40 | 321 | 1.7 | 8.7 | 0.00 | 0.67 | 0.49 | 95 | 1004.6 |
| 20260504231359 | 40 | 294 | 4.3 | 8.7 | 0.00 | 0.67 | 0.49 | 95 | 1004.6 |
| 20260504231258 | 40 | 323 | 4.3 | 8.7 | 0.00 | 0.67 | 0.49 | 95 | 1004.7 |
| 20260504231158 | 40 | 293 | 3.5 | 8.7 | 0.00 | 0.67 | 0.49 | 95 | 1004.7 |
| 20260504231058 | 40 | 323 | 4.3 | 8.7 | 0.00 | 0.67 | 0.49 | 95 | 1004.7 |
| 20260504230959 | 40 | 284 | 2.6 | 8.7 | 0.00 | 0.67 | 0.49 | 95 | 1004.7 |
| 20260504230858 | 40 | 273 | 2.6 | 8.7 | 0.00 | 0.67 | 0.49 | 95 | 1004.7 |
| 20260504230758 | 40 | 326 | 2.6 | 8.7 | 0.00 | 0.67 | 0.49 | 95 | 1004.7 |
| 20260504230700 | 40 | 303 | 3.5 | 10.4 | 0.00 | 0.67 | 0.49 | 95 | 1004.6 |
| 20260504230558 | 40 | 313 | 5.2 | 10.4 | 0.00 | 0.67 | 0.49 | 95 | 1004.7 |
| 20260504230504 | 40 | 304 | 4.3 | 10.4 | 0.00 | 0.67 | 0.49 | 95 | 1004.8 |
| 20260504230359 | 40 | 317 | 5.2 | 10.4 | 0.00 | 0.67 | 0.49 | 95 | 1004.8 |
| 20260504230258 | 40 | 355 | 5.2 | 10.4 | 0.00 | 0.67 | 0.49 | 95 | 1004.6 |
| 20260504230158 | 40 | 336 | 2.6 | 10.4 | 0.00 | 0.67 | 0.49 | 94 | 1004.6 |
| 20260504230059 | 40 | 334 | 3.5 | 10.4 | 0.00 | 0.67 | 0.49 | 94 | 1004.5 |
| 20260504230005 | 40 | 337 | 4.3 | 10.4 | 0.00 | 0.67 | 0.49 | 94 | 1004.5 |
| 20260504225856 | 40 | 306 | 7.0 | 10.4 | 0.00 | 0.67 | 0.49 | 94 | 1004.5 |
| 20260504225758 | 40 | 333 | 9.6 | 10.4 | 0.00 | 0.67 | 0.49 | 94 | 1004.6 |
| 20260504225556 | 40 | 323 | 5.2 | 7.8 | 0.00 | 0.67 | 0.49 | 95 | 1004.6 |
| 20260504225459 | 40 | 345 | 5.2 | 7.8 | 0.00 | 0.67 | 0.49 | 95 | 1004.6 |
| 20260504225358 | 40 | 332 | 3.5 | 7.8 | 0.00 | 0.67 | 0.49 | 95 | 1004.6 |
| 20260504225257 | 40 | 290 | 2.6 | 7.8 | 0.00 | 0.67 | 0.49 | 94 | 1004.7 |
| 20260504225057 | 40 | 316 | 4.3 | 8.7 | 0.00 | 0.67 | 0.49 | 94 | 1004.7 |
| 20260504224858 | 40 | 266 | 1.7 | 12.2 | 0.00 | 0.67 | 0.49 | 94 | 1004.8 |
| 20260504224758 | 40 | 265 | 1.7 | 12.2 | 0.00 | 0.67 | 0.49 | 94 | 1004.8 |
| 20260504224558 | 40 | 314 | 2.6 | 12.2 | 0.00 | 0.67 | 0.49 | 94 | 1004.7 |
| 20260504224458 | 40 | 319 | 3.5 | 12.2 | 0.00 | 0.67 | 0.49 | 94 | 1004.8 |
| 20260504224357 | 40 | 347 | 5.2 | 12.2 | 0.00 | 0.67 | 0.49 | 94 | 1004.8 |
| 20260504224257 | 40 | 360 | 3.5 | 12.2 | 0.00 | 0.67 | 0.49 | 94 | 1004.7 |
| 20260504224157 | 40 | 11 | 7.0 | 12.2 | 0.00 | 0.67 | 0.49 | 94 | 1004.6 |
| 20260504224057 | 40 | 27 | 4.3 | 12.2 | 0.00 | 0.67 | 0.49 | 94 | 1004.5 |
| 20260504223959 | 40 | 275 | 8.7 | 12.2 | 0.00 | 0.67 | 0.49 | 94 | 1004.7 |
| 20260504223857 | 40 | 286 | 8.7 | 12.2 | 0.00 | 0.67 | 0.49 | 94 | 1004.9 |
| 20260504223758 | 41 | 324 | 8.7 | 12.2 | 0.00 | 0.67 | 0.49 | 94 | 1004.9 |
| 20260504223557 | 41 | 331 | 0.0 | 9.6 | 0.00 | 0.67 | 0.49 | 94 | 1004.8 |
| 20260504223458 | 41 | 336 | 0.9 | 9.6 | 0.00 | 0.67 | 0.49 | 94 | 1004.8 |
| 20260504223357 | 41 | 350 | 5.2 | 9.6 | 0.00 | 0.67 | 0.49 | 94 | 1004.7 |
| 20260504223257 | 41 | 327 | 2.6 | 9.6 | 0.00 | 0.67 | 0.49 | 94 | 1004.8 |
| 20260504223058 | 41 | 319 | 5.2 | 9.6 | 0.00 | 0.67 | 0.49 | 94 | 1004.8 |
| 20260504222958 | 41 | 327 | 4.3 | 7.8 | 0.00 | 0.67 | 0.49 | 94 | 1004.9 |
| 20260504222857 | 41 | 341 | 3.5 | 7.8 | 0.00 | 0.67 | 0.49 | 94 | 1005.1 |
| 20260504222657 | 41 | 343 | 4.3 | 7.8 | 0.00 | 0.67 | 0.49 | 94 | 1005.1 |
| 20260504222459 | 41 | 9 | 3.5 | 7.8 | 0.00 | 0.67 | 0.49 | 94 | 1005.2 |
| 20260504222358 | 41 | 355 | 1.7 | 7.8 | 0.00 | 0.67 | 0.49 | 94 | 1005.0 |
| 20260504222257 | 41 | 322 | 4.3 | 7.8 | 0.00 | 0.67 | 0.49 | 94 | 1005.1 |
| 20260504222157 | 41 | 338 | 5.2 | 7.8 | 0.00 | 0.67 | 0.49 | 94 | 1005.1 |
| 20260504222057 | 41 | 293 | 6.1 | 7.0 | 0.00 | 0.67 | 0.49 | 94 | 1005.2 |
| 20260504221958 | 41 | 338 | 1.7 | 4.3 | 0.00 | 0.67 | 0.49 | 94 | 1005.3 |
| 20260504221857 | 41 | 338 | 2.6 | 4.3 | 0.00 | 0.67 | 0.49 | 94 | 1005.3 |
| 20260504221756 | 41 | 280 | 2.6 | 7.0 | 0.00 | 0.67 | 0.49 | 94 | 1005.2 |
| 20260504221558 | 40 | 231 | 2.6 | 7.0 | 0.00 | 0.67 | 0.49 | 93 | 1005.3 |
| 20260504221458 | 40 | 231 | 0.9 | 7.0 | 0.00 | 0.67 | 0.49 | 93 | 1005.3 |
| 20260504221357 | 40 | 231 | 1.7 | 7.0 | 0.00 | 0.67 | 0.49 | 93 | 1005.4 |
| 20260504221257 | 40 | 271 | 2.6 | 7.0 | 0.00 | 0.67 | 0.49 | 93 | 1005.5 |
| 20260504221157 | 40 | 292 | 1.7 | 7.0 | 0.00 | 0.67 | 0.49 | 93 | 1005.5 |
| 20260504221000 | 40 | 292 | 2.6 | 7.0 | 0.00 | 0.67 | 0.49 | 93 | 1005.4 |
| 20260504220858 | 40 | 277 | 5.2 | 5.2 | 0.00 | 0.67 | 0.49 | 93 | 1005.5 |
| 20260504220559 | 40 | 350 | 0.9 | 8.7 | 0.00 | 0.67 | 0.49 | 92 | 1005.7 |
| 20260504220459 | 40 | 343 | 3.5 | 8.7 | 0.00 | 0.67 | 0.49 | 92 | 1005.6 |
| 20260504220257 | 41 | 344 | 4.3 | 8.7 | 0.00 | 0.67 | 0.49 | 92 | 1005.7 |
| 20260504220156 | 41 | 355 | 3.5 | 8.7 | 0.00 | 0.67 | 0.49 | 91 | 1005.6 |
| 20260504220057 | 41 | 324 | 2.6 | 8.7 | 0.00 | 0.67 | 0.49 | 91 | 1005.6 |
| 20260504215757 | 41 | 338 | 7.0 | 8.7 | 0.00 | 0.67 | 0.49 | 89 | 1005.8 |
| 20260504215657 | 41 | 324 | 7.0 | 9.6 | 0.00 | 0.67 | 0.49 | 89 | 1005.9 |
| 20260504215557 | 42 | 5 | 2.6 | 9.6 | 0.00 | 0.67 | 0.49 | 89 | 1006.0 |
| 20260504215500 | 42 | 346 | 3.5 | 9.6 | 0.00 | 0.67 | 0.49 | 88 | 1005.9 |
| 20260504215358 | 42 | 9 | 3.5 | 9.6 | 0.00 | 0.67 | 0.49 | 88 | 1005.9 |
| 20260504215258 | 42 | 348 | 5.2 | 9.6 | 0.00 | 0.67 | 0.49 | 87 | 1006.1 |
| 20260504215159 | 43 | 28 | 2.6 | 9.6 | 0.00 | 0.67 | 0.49 | 86 | 1006.1 |
| 20260504215057 | 43 | 293 | 3.5 | 12.2 | 0.00 | 0.67 | 0.49 | 86 | 1006.0 |
| 20260504214959 | 43 | 338 | 7.8 | 12.2 | 0.00 | 0.67 | 0.49 | 85 | 1006.0 |
| 20260504214857 | 44 | 347 | 4.3 | 12.2 | 0.00 | 0.67 | 0.49 | 84 | 1006.0 |
| 20260504214757 | 44 | 11 | 4.3 | 12.2 | 0.00 | 0.67 | 0.49 | 84 | 1006.0 |
| 20260504214557 | 45 | 39 | 8.7 | 12.2 | 0.00 | 0.67 | 0.49 | 81 | 1005.9 |
| 20260504214357 | 44 | 146 | 0.9 | 12.2 | 0.00 | 0.67 | 0.49 | 75 | 1005.9 |
| 20260504214258 | 44 | 173 | 2.6 | 12.2 | 0.00 | 0.67 | 0.49 | 77 | 1005.9 |
| 20260504214158 | 43 | 134 | 1.7 | 12.2 | 0.00 | 0.67 | 0.49 | 80 | 1005.9 |
| 20260504214000 | 43 | 266 | 3.5 | 6.1 | 0.00 | 0.67 | 0.49 | 87 | 1005.9 |
| 20260504213759 | 44 | 38 | 0.9 | 7.0 | 0.00 | 0.67 | 0.49 | 86 | 1005.9 |
| 20260504213657 | 44 | 38 | 3.5 | 8.7 | 0.00 | 0.67 | 0.49 | 84 | 1005.8 |
| 20260504213557 | 44 | 306 | 3.5 | 8.7 | 0.00 | 0.67 | 0.49 | 83 | 1005.7 |
| 20260504213459 | 45 | 297 | 4.3 | 8.7 | 0.00 | 0.67 | 0.49 | 81 | 1005.8 |
| 20260504213357 | 45 | 309 | 3.5 | 8.7 | 0.00 | 0.67 | 0.49 | 80 | 1005.8 |
| 20260504213258 | 46 | 302 | 2.6 | 8.7 | 0.00 | 0.67 | 0.49 | 79 | 1005.9 |
| 20260504213157 | 46 | 331 | 3.5 | 8.7 | 0.00 | 0.67 | 0.49 | 78 | 1005.9 |
| 20260504213058 | 47 | 341 | 2.6 | 8.7 | 0.00 | 0.67 | 0.49 | 76 | 1005.9 |
| 20260504212959 | 48 | 338 | 1.7 | 8.7 | 0.00 | 0.67 | 0.49 | 75 | 1005.9 |
| 20260504212857 | 49 | 9 | 7.0 | 11.3 | 0.00 | 0.67 | 0.49 | 68 | 1005.9 |
| 20260504212657 | 49 | 245 | 0.9 | 15.6 | 0.00 | 0.67 | 0.49 | 64 | 1005.9 |
| 20260504212558 | 49 | 247 | 1.7 | 15.6 | 0.00 | 0.67 | 0.49 | 63 | 1005.8 |
| 20260504212459 | 49 | 151 | 3.5 | 15.6 | 0.00 | 0.67 | 0.49 | 63 | 1005.8 |
| 20260504212358 | 49 | 149 | 2.6 | 15.6 | 0.00 | 0.67 | 0.49 | 64 | 1005.8 |
| 20260504212257 | 49 | 200 | 2.6 | 15.6 | 0.00 | 0.67 | 0.49 | 63 | 1005.7 |
| 20260504212158 | 49 | 198 | 6.1 | 15.6 | 0.00 | 0.67 | 0.49 | 62 | 1005.7 |
| 20260504212059 | 49 | 74 | 1.7 | 15.6 | 0.00 | 0.67 | 0.49 | 61 | 1005.8 |
| 20260504211959 | 49 | 150 | 7.8 | 15.6 | 0.00 | 0.67 | 0.49 | 63 | 1005.8 |
| 20260504211859 | 49 | 146 | 9.6 | 13.9 | 0.00 | 0.67 | 0.49 | 63 | 1005.8 |
| 20260504211757 | 49 | 102 | 7.0 | 13.9 | 0.00 | 0.67 | 0.49 | 66 | 1005.6 |
| 20260504211658 | 49 | 124 | 6.1 | 13.9 | 0.00 | 0.67 | 0.49 | 64 | 1005.8 |
| 20260504211558 | 49 | 162 | 7.0 | 13.9 | 0.00 | 0.67 | 0.49 | 64 | 1005.7 |
| 20260504211459 | 49 | 105 | 7.0 | 13.9 | 0.00 | 0.67 | 0.49 | 64 | 1005.9 |
| 20260504211357 | 48 | 101 | 7.8 | 13.9 | 0.00 | 0.67 | 0.49 | 65 | 1005.8 |
| 20260504211258 | 48 | 113 | 6.1 | 13.9 | 0.00 | 0.67 | 0.49 | 65 | 1005.9 |
| 20260504210959 | 48 | 120 | 7.0 | 12.2 | 0.00 | 0.67 | 0.49 | 66 | 1005.9 |
| 20260504210859 | 48 | 120 | 11.3 | 11.3 | 0.00 | 0.67 | 0.49 | 66 | 1005.9 |
| 20260504210757 | 48 | 150 | 7.0 | 10.4 | 0.00 | 0.67 | 0.49 | 67 | 1005.8 |
| 20260504210500 | 48 | 104 | 10.4 | 11.3 | 0.00 | 0.67 | 0.49 | 67 | 1005.9 |
| 20260504210357 | 48 | 100 | 7.0 | 15.6 | 0.00 | 0.67 | 0.49 | 68 | 1006.0 |
| 20260504210258 | 48 | 102 | 8.7 | 15.6 | 0.00 | 0.67 | 0.49 | 68 | 1006.0 |
| 20260504210157 | 47 | 117 | 7.0 | 15.6 | 0.00 | 0.67 | 0.49 | 68 | 1005.9 |
| 20260504210057 | 47 | 72 | 9.6 | 15.6 | 0.00 | 0.67 | 0.49 | 69 | 1006.0 |
| 20260504210002 | 47 | 130 | 4.3 | 15.6 | 0.00 | 0.67 | 0.49 | 70 | 1006.0 |
| 20260504205857 | 47 | 123 | 2.6 | 15.6 | 0.00 | 0.67 | 0.49 | 71 | 1006.1 |
| 20260504205458 | 46 | 138 | 11.3 | 13.0 | 0.00 | 0.67 | 0.49 | 73 | 1006.2 |
| 20260504205358 | 45 | 205 | 5.2 | 12.2 | 0.00 | 0.67 | 0.49 | 74 | 1006.2 |
| 20260504205258 | 45 | 94 | 7.8 | 11.3 | 0.00 | 0.67 | 0.49 | 76 | 1006.3 |
| 20260504205156 | 44 | 141 | 7.0 | 11.3 | 0.00 | 0.67 | 0.49 | 79 | 1006.4 |
| 20260504205058 | 44 | 137 | 4.3 | 11.3 | 0.00 | 0.67 | 0.49 | 81 | 1006.4 |
| 20260504204858 | 43 | 265 | 2.6 | 11.3 | 0.00 | 0.67 | 0.49 | 81 | 1006.5 |
| 20260504204756 | 43 | 265 | 2.6 | 11.3 | 0.00 | 0.67 | 0.49 | 84 | 1006.5 |
| 20260504204657 | 42 | 75 | 6.1 | 12.2 | 0.00 | 0.67 | 0.49 | 85 | 1006.6 |
| 20260504204558 | 42 | 193 | 2.6 | 12.2 | 0.00 | 0.67 | 0.49 | 85 | 1006.5 |
| 20260504204458 | 42 | 173 | 6.1 | 12.2 | 0.00 | 0.67 | 0.49 | 85 | 1006.6 |
| 20260504204357 | 42 | 184 | 9.6 | 12.2 | 0.00 | 0.67 | 0.49 | 85 | 1006.4 |
| 20260504204157 | 41 | 209 | 2.6 | 13.0 | 0.00 | 0.67 | 0.49 | 87 | 1006.8 |
| 20260504204058 | 41 | 182 | 4.3 | 19.1 | 0.00 | 0.67 | 0.49 | 88 | 1006.8 |
| 20260504203958 | 41 | 194 | 3.5 | 19.1 | 0.00 | 0.67 | 0.49 | 88 | 1006.8 |
| 20260504203758 | 41 | 194 | 2.6 | 19.1 | 0.00 | 0.67 | 0.49 | 89 | 1006.9 |
| 20260504203557 | 41 | 273 | 0.9 | 19.1 | 0.00 | 0.67 | 0.49 | 90 | 1007.0 |
| 20260504203459 | 41 | 277 | 0.9 | 19.1 | 0.00 | 0.67 | 0.49 | 90 | 1007.1 |
| 20260504203357 | 41 | 193 | 7.8 | 19.1 | 0.00 | 0.67 | 0.49 | 91 | 1006.9 |
| 20260504203258 | 41 | 192 | 9.6 | 19.1 | 0.00 | 0.67 | 0.49 | 91 | 1006.7 |
| 20260504203158 | 40 | 103 | 15.6 | 15.6 | 0.00 | 0.67 | 0.49 | 91 | 1006.7 |
| 20260504203057 | 40 | 360 | 7.8 | 12.2 | 0.00 | 0.67 | 0.49 | 92 | 1006.6 |
| 20260504202959 | 40 | 21 | 7.0 | 12.2 | 0.00 | 0.67 | 0.49 | 92 | 1006.8 |
| 20260504202857 | 40 | 19 | 7.0 | 12.2 | 0.00 | 0.67 | 0.49 | 93 | 1006.8 |
| 20260504202758 | 40 | 24 | 7.8 | 12.2 | 0.00 | 0.67 | 0.49 | 93 | 1006.7 |
| 20260504202657 | 39 | 5 | 7.8 | 12.2 | 0.00 | 0.67 | 0.49 | 94 | 1006.6 |
| 20260504202459 | 39 | 86 | 3.5 | 9.6 | 0.00 | 0.67 | 0.49 | 94 | 1007.0 |
| 20260504202357 | 39 | 122 | 6.1 | 7.0 | 0.00 | 0.67 | 0.49 | 94 | 1006.7 |
| 20260504202257 | 39 | 273 | 1.7 | 7.8 | 0.00 | 0.67 | 0.49 | 94 | 1007.0 |
| 20260504201856 | 39 | 303 | 2.6 | 7.8 | 0.00 | 0.67 | 0.49 | 93 | 1006.9 |
| 20260504201757 | 39 | 250 | 4.3 | 7.8 | 0.00 | 0.67 | 0.49 | 93 | 1007.1 |
| 20260504201658 | 39 | 348 | 2.6 | 7.8 | 0.00 | 0.67 | 0.49 | 93 | 1007.1 |
| 20260504201558 | 39 | 355 | 4.3 | 7.8 | 0.00 | 0.67 | 0.49 | 93 | 1007.0 |
| 20260504201459 | 39 | 297 | 7.8 | 7.8 | 0.00 | 0.67 | 0.49 | 93 | 1007.1 |
| 20260504201356 | 39 | 244 | 1.7 | 7.8 | 0.00 | 0.67 | 0.49 | 93 | 1007.2 |
| 20260504201257 | 39 | 215 | 0.9 | 7.8 | 0.00 | 0.67 | 0.49 | 93 | 1007.2 |
| 20260504201157 | 39 | 215 | 0.9 | 7.8 | 0.00 | 0.67 | 0.49 | 93 | 1007.0 |
| 20260504200959 | 39 | 277 | 1.7 | 4.3 | 0.00 | 0.67 | 0.49 | 93 | 1007.2 |
| 20260504200858 | 39 | 279 | 1.7 | 4.3 | 0.00 | 0.67 | 0.49 | 93 | 1007.2 |
| 20260504200657 | 39 | 355 | 1.7 | 4.3 | 0.00 | 0.67 | 0.49 | 93 | 1007.4 |
| 20260504200558 | 39 | 338 | 0.9 | 4.3 | 0.00 | 0.67 | 0.49 | 93 | 1007.3 |
| 20260504200458 | 39 | 338 | 0.9 | 4.3 | 0.00 | 0.67 | 0.49 | 93 | 1007.4 |
| 20260504200258 | 39 | 331 | 3.5 | 5.2 | 0.00 | 0.67 | 0.49 | 92 | 1007.4 |
| 20260504195959 | 39 | 268 | 1.7 | 7.8 | 0.00 | 0.67 | 0.49 | 92 | 1007.7 |
| 20260504195858 | 39 | 268 | 0.0 | 7.8 | 0.00 | 0.67 | 0.49 | 92 | 1007.5 |
| 20260504195757 | 39 | 268 | 0.0 | 7.8 | 0.00 | 0.67 | 0.49 | 92 | 1007.5 |
| 20260504195557 | 39 | 269 | 3.5 | 7.8 | 0.00 | 0.67 | 0.49 | 92 | 1007.6 |
| 20260504195459 | 39 | 290 | 1.7 | 7.8 | 0.00 | 0.67 | 0.49 | 91 | 1007.6 |
| 20260504195257 | 39 | 290 | 3.5 | 7.8 | 0.00 | 0.67 | 0.49 | 91 | 1007.7 |
| 20260504195058 | 39 | 267 | 5.2 | 7.8 | 0.00 | 0.67 | 0.49 | 90 | 1007.9 |
| 20260504194959 | 39 | 311 | 3.5 | 8.7 | 0.00 | 0.67 | 0.49 | 89 | 1008.0 |
| 20260504194856 | 40 | 273 | 2.6 | 8.7 | 0.00 | 0.67 | 0.49 | 89 | 1008.0 |
| 20260504194757 | 40 | 285 | 2.6 | 8.7 | 0.00 | 0.67 | 0.49 | 88 | 1008.1 |
| 20260504194657 | 40 | 280 | 6.1 | 9.6 | 0.00 | 0.67 | 0.49 | 88 | 1008.1 |
| 20260504194557 | 40 | 285 | 3.5 | 9.6 | 0.00 | 0.67 | 0.49 | 87 | 1008.1 |
| 20260504194458 | 41 | 248 | 2.6 | 9.6 | 0.00 | 0.67 | 0.49 | 87 | 1008.0 |
| 20260504194357 | 41 | 248 | 6.1 | 12.2 | 0.00 | 0.67 | 0.49 | 86 | 1008.0 |
| 20260504194259 | 41 | 269 | 3.5 | 13.0 | 0.00 | 0.67 | 0.49 | 84 | 1008.0 |
| 20260504194157 | 42 | 276 | 5.2 | 15.6 | 0.00 | 0.67 | 0.49 | 83 | 1008.1 |
| 20260504194057 | 42 | 284 | 7.0 | 15.6 | 0.00 | 0.67 | 0.49 | 82 | 1008.1 |
| 20260504193959 | 43 | 229 | 1.7 | 15.6 | 0.00 | 0.67 | 0.49 | 81 | 1008.0 |
| 20260504193857 | 44 | 182 | 5.2 | 15.6 | 0.00 | 0.67 | 0.49 | 80 | 1008.0 |
| 20260504193758 | 44 | 163 | 7.0 | 15.6 | 0.00 | 0.67 | 0.49 | 76 | 1007.8 |
| 20260504193658 | 44 | 140 | 9.6 | 15.6 | 0.00 | 0.67 | 0.49 | 75 | 1007.8 |
| 20260504193557 | 44 | 113 | 8.7 | 15.6 | 0.00 | 0.67 | 0.49 | 77 | 1007.9 |
| 20260504193459 | 43 | 178 | 5.2 | 15.6 | 0.00 | 0.67 | 0.49 | 78 | 1008.0 |
| 20260504193357 | 43 | 117 | 10.4 | 14.8 | 0.00 | 0.67 | 0.49 | 78 | 1007.9 |
| 20260504193257 | 42 | 113 | 7.0 | 12.2 | 0.00 | 0.67 | 0.49 | 79 | 1007.9 |
| 20260504193157 | 43 | 183 | 6.1 | 13.0 | 0.00 | 0.67 | 0.49 | 80 | 1008.0 |
| 20260504193058 | 43 | 197 | 4.3 | 13.0 | 0.00 | 0.67 | 0.49 | 79 | 1008.2 |
| 20260504193000 | 44 | 110 | 6.1 | 25.2 | 0.00 | 0.67 | 0.49 | 78 | 1008.2 |
| 20260504192856 | 44 | 226 | 3.5 | 25.2 | 0.00 | 0.67 | 0.49 | 77 | 1008.4 |
| 20260504192757 | 45 | 186 | 5.2 | 25.2 | 0.00 | 0.67 | 0.49 | 76 | 1008.2 |
| 20260504192658 | 46 | 188 | 3.5 | 25.2 | 0.00 | 0.67 | 0.49 | 75 | 1008.1 |
| 20260504192557 | 46 | 217 | 4.3 | 25.2 | 0.00 | 0.67 | 0.49 | 70 | 1008.0 |
| 20260504192257 | 46 | 171 | 4.3 | 25.2 | 0.00 | 0.67 | 0.49 | 68 | 1008.1 |
| 20260504192157 | 46 | 117 | 16.5 | 25.2 | 0.00 | 0.67 | 0.49 | 68 | 1008.0 |
| 20260504192057 | 46 | 114 | 11.3 | 20.9 | 0.00 | 0.67 | 0.49 | 69 | 1008.2 |
| 20260504191959 | 46 | 138 | 20.9 | 21.7 | 0.01 | 0.67 | 0.49 | 69 | 1008.1 |
| 20260504191758 | 46 | 169 | 7.8 | 23.5 | 0.01 | 0.67 | 0.49 | 70 | 1008.0 |
| 20260504191657 | 46 | 189 | 2.6 | 23.5 | 0.01 | 0.67 | 0.49 | 69 | 1008.0 |
| 20260504191558 | 46 | 174 | 11.3 | 23.5 | 0.01 | 0.67 | 0.49 | 68 | 1008.0 |
| 20260504191459 | 46 | 229 | 5.2 | 23.5 | 0.01 | 0.67 | 0.49 | 69 | 1008.0 |
| 20260504191358 | 46 | 106 | 8.7 | 23.5 | 0.01 | 0.67 | 0.49 | 70 | 1007.8 |
| 20260504191157 | 46 | 115 | 7.0 | 23.5 | 0.01 | 0.67 | 0.49 | 68 | 1007.9 |
| 20260504191057 | 45 | 156 | 20.0 | 23.5 | 0.01 | 0.67 | 0.49 | 71 | 1007.8 |
| 20260504190959 | 45 | 145 | 8.7 | 24.3 | 0.02 | 0.67 | 0.49 | 71 | 1008.0 |
| 20260504190858 | 45 | 164 | 5.2 | 24.3 | 0.02 | 0.67 | 0.49 | 72 | 1007.9 |
| 20260504190557 | 45 | 133 | 17.4 | 26.9 | 0.02 | 0.67 | 0.49 | 72 | 1007.8 |
| 20260504190500 | 45 | 113 | 5.2 | 26.9 | 0.02 | 0.67 | 0.49 | 71 | 1007.8 |
| 20260504190258 | 45 | 105 | 16.5 | 26.9 | 0.02 | 0.67 | 0.49 | 71 | 1007.7 |
| 20260504190158 | 45 | 104 | 17.4 | 26.9 | 0.02 | 0.67 | 0.49 | 71 | 1007.6 |
| 20260504190058 | 45 | 105 | 22.6 | 26.9 | 0.02 | 0.67 | 0.49 | 72 | 1007.7 |
| 20260504190003 | 45 | 82 | 7.0 | 26.9 | 0.02 | 0.67 | 0.49 | 72 | 1007.6 |
| 20260504185857 | 45 | 99 | 11.3 | 26.9 | 0.02 | 0.67 | 0.49 | 72 | 1007.6 |
| 20260504185657 | 45 | 126 | 27.8 | 27.8 | 0.02 | 0.67 | 0.49 | 72 | 1007.5 |
| 20260504185459 | 45 | 105 | 11.3 | 28.7 | 0.03 | 0.67 | 0.49 | 73 | 1007.6 |
| 20260504185258 | 45 | 195 | 4.3 | 30.4 | 0.03 | 0.67 | 0.49 | 73 | 1007.4 |
| 20260504185158 | 45 | 109 | 21.7 | 30.4 | 0.03 | 0.67 | 0.49 | 73 | 1007.5 |
| 20260504185058 | 45 | 84 | 4.3 | 30.4 | 0.03 | 0.67 | 0.49 | 74 | 1007.5 |
| 20260504185000 | 45 | 127 | 11.3 | 30.4 | 0.03 | 0.67 | 0.49 | 73 | 1007.4 |
| 20260504184857 | 45 | 115 | 24.3 | 30.4 | 0.03 | 0.67 | 0.49 | 74 | 1007.3 |
| 20260504184757 | 45 | 142 | 13.9 | 30.4 | 0.03 | 0.67 | 0.49 | 73 | 1007.2 |
| 20260504184656 | 45 | 101 | 15.6 | 30.4 | 0.03 | 0.67 | 0.49 | 73 | 1007.3 |
| 20260504184556 | 45 | 186 | 16.5 | 30.4 | 0.03 | 0.67 | 0.49 | 73 | 1007.4 |
| 20260504184357 | 45 | 111 | 20.9 | 26.9 | 0.03 | 0.67 | 0.49 | 74 | 1007.4 |
| 20260504184258 | 45 | 102 | 24.3 | 26.9 | 0.03 | 0.67 | 0.49 | 75 | 1007.4 |
| 20260504184157 | 45 | 101 | 18.2 | 26.9 | 0.03 | 0.67 | 0.49 | 74 | 1007.5 |
| 20260504184057 | 45 | 83 | 20.9 | 26.9 | 0.04 | 0.67 | 0.49 | 76 | 1007.6 |
| 20260504183958 | 45 | 143 | 13.9 | 26.9 | 0.04 | 0.67 | 0.49 | 76 | 1007.6 |
| 20260504183856 | 45 | 117 | 8.7 | 26.9 | 0.04 | 0.67 | 0.49 | 76 | 1007.6 |
| 20260504183759 | 45 | 121 | 8.7 | 26.9 | 0.04 | 0.67 | 0.49 | 76 | 1007.6 |
| 20260504183657 | 45 | 109 | 17.4 | 30.4 | 0.04 | 0.67 | 0.49 | 76 | 1007.5 |
| 20260504183358 | 45 | 107 | 21.7 | 30.4 | 0.05 | 0.67 | 0.49 | 76 | 1007.5 |
| 20260504183257 | 45 | 114 | 18.2 | 30.4 | 0.05 | 0.67 | 0.49 | 76 | 1007.5 |
| 20260504183158 | 45 | 109 | 20.0 | 30.4 | 0.05 | 0.67 | 0.49 | 76 | 1007.4 |
| 20260504182959 | 45 | 119 | 23.5 | 30.4 | 0.05 | 0.67 | 0.49 | 77 | 1007.4 |
| 20260504182856 | 45 | 122 | 13.9 | 30.4 | 0.06 | 0.67 | 0.49 | 77 | 1007.4 |
| 20260504182757 | 44 | 145 | 30.4 | 31.3 | 0.06 | 0.67 | 0.49 | 77 | 1007.5 |
| 20260504182657 | 44 | 95 | 26.9 | 31.3 | 0.06 | 0.67 | 0.49 | 78 | 1007.6 |
| 20260504182459 | 44 | 128 | 9.6 | 31.3 | 0.06 | 0.67 | 0.49 | 79 | 1007.5 |
| 20260504182358 | 44 | 148 | 11.3 | 31.3 | 0.06 | 0.67 | 0.49 | 78 | 1007.6 |
| 20260504182257 | 44 | 114 | 10.4 | 31.3 | 0.06 | 0.67 | 0.49 | 79 | 1007.8 |
| 20260504182058 | 44 | 117 | 17.4 | 31.3 | 0.07 | 0.67 | 0.49 | 81 | 1007.8 |
| 20260504181958 | 44 | 98 | 20.0 | 27.8 | 0.06 | 0.66 | 0.48 | 82 | 1007.8 |
| 20260504181856 | 43 | 130 | 11.3 | 27.8 | 0.06 | 0.66 | 0.48 | 82 | 1008.1 |
| 20260504181757 | 43 | 99 | 16.5 | 24.3 | 0.06 | 0.66 | 0.48 | 84 | 1008.1 |
| 20260504181658 | 42 | 134 | 13.0 | 22.6 | 0.06 | 0.66 | 0.48 | 86 | 1008.0 |
| 20260504181458 | 41 | 178 | 7.8 | 15.6 | 0.07 | 0.66 | 0.48 | 91 | 1008.2 |
| 20260504181357 | 40 | 62 | 7.8 | 14.8 | 0.07 | 0.66 | 0.48 | 93 | 1008.3 |
| 20260504181257 | 40 | 163 | 4.3 | 14.8 | 0.07 | 0.66 | 0.48 | 93 | 1008.3 |
| 20260504181158 | 39 | 143 | 5.2 | 14.8 | 0.07 | 0.66 | 0.48 | 94 | 1008.4 |
| 20260504180857 | 39 | 124 | 3.5 | 10.4 | 0.07 | 0.65 | 0.47 | 94 | 1008.5 |
| 20260504180758 | 39 | 289 | 0.9 | 13.0 | 0.07 | 0.65 | 0.47 | 94 | 1008.4 |
| 20260504180558 | 39 | 351 | 0.9 | 13.9 | 0.07 | 0.65 | 0.47 | 94 | 1008.5 |
| 20260504180459 | 39 | 263 | 2.6 | 13.9 | 0.08 | 0.65 | 0.47 | 94 | 1008.5 |
| 20260504180358 | 39 | 148 | 4.3 | 13.9 | 0.08 | 0.65 | 0.47 | 95 | 1008.5 |
| 20260504180158 | 39 | 199 | 4.3 | 13.9 | 0.08 | 0.65 | 0.47 | 95 | 1008.4 |
| 20260504180058 | 39 | 36 | 7.8 | 13.9 | 0.08 | 0.65 | 0.47 | 95 | 1008.5 |
| 20260504175958 | 39 | 212 | 0.9 | 13.9 | 0.08 | 0.65 | 0.47 | 95 | 1008.4 |
| 20260504175857 | 38 | 113 | 7.0 | 13.9 | 0.08 | 0.65 | 0.47 | 95 | 1008.9 |
| 20260504175757 | 38 | 124 | 4.3 | 10.4 | 0.08 | 0.65 | 0.47 | 94 | 1008.6 |
| 20260504175658 | 38 | 36 | 3.5 | 10.4 | 0.08 | 0.65 | 0.47 | 94 | 1008.4 |
| 20260504175557 | 38 | 298 | 7.8 | 10.4 | 0.09 | 0.65 | 0.47 | 94 | 1008.8 |
| 20260504175459 | 39 | 140 | 2.6 | 7.0 | 0.08 | 0.64 | 0.46 | 94 | 1008.8 |
| 20260504175357 | 39 | 269 | 0.9 | 7.0 | 0.08 | 0.64 | 0.46 | 94 | 1008.6 |
| 20260504175257 | 39 | 176 | 2.6 | 8.7 | 0.08 | 0.64 | 0.46 | 94 | 1008.7 |
| 20260504175157 | 39 | 225 | 2.6 | 8.7 | 0.08 | 0.64 | 0.46 | 94 | 1008.6 |
| 20260504175057 | 39 | 302 | 4.3 | 8.7 | 0.08 | 0.64 | 0.46 | 94 | 1008.9 |
| 20260504174959 | 39 | 53 | 0.0 | 8.7 | 0.08 | 0.64 | 0.46 | 94 | 1008.9 |
| 20260504174857 | 39 | 53 | 0.0 | 8.7 | 0.08 | 0.64 | 0.46 | 94 | 1008.9 |
| 20260504174658 | 39 | 23 | 2.6 | 8.7 | 0.08 | 0.64 | 0.46 | 94 | 1008.7 |
| 20260504174557 | 39 | 313 | 3.5 | 8.7 | 0.09 | 0.64 | 0.46 | 94 | 1008.6 |
| 20260504174357 | 39 | 215 | 2.6 | 6.1 | 0.09 | 0.64 | 0.46 | 95 | 1008.6 |
| 20260504174257 | 39 | 246 | 1.7 | 6.1 | 0.09 | 0.64 | 0.46 | 95 | 1008.8 |
| 20260504174157 | 39 | 128 | 2.6 | 6.1 | 0.09 | 0.64 | 0.46 | 95 | 1008.7 |
| 20260504174057 | 39 | 207 | 2.6 | 6.1 | 0.08 | 0.63 | 0.45 | 95 | 1008.6 |
| 20260504173959 | 39 | 254 | 1.7 | 6.1 | 0.08 | 0.63 | 0.45 | 95 | 1008.5 |
| 20260504173756 | 39 | 199 | 1.7 | 10.4 | 0.08 | 0.63 | 0.45 | 95 | 1008.6 |
| 20260504173657 | 39 | 199 | 1.7 | 10.4 | 0.08 | 0.63 | 0.45 | 95 | 1008.5 |
| 20260504173556 | 39 | 261 | 1.7 | 10.4 | 0.08 | 0.63 | 0.45 | 95 | 1008.5 |
| 20260504173458 | 39 | 208 | 4.3 | 10.4 | 0.08 | 0.62 | 0.44 | 95 | 1008.6 |
| 20260504173357 | 39 | 192 | 4.3 | 10.4 | 0.08 | 0.62 | 0.44 | 95 | 1008.6 |
| 20260504173257 | 38 | 202 | 2.6 | 10.4 | 0.08 | 0.62 | 0.44 | 95 | 1008.6 |
| 20260504173157 | 38 | 272 | 0.9 | 10.4 | 0.08 | 0.62 | 0.44 | 95 | 1008.5 |
| 20260504173058 | 38 | 268 | 3.5 | 10.4 | 0.08 | 0.62 | 0.44 | 95 | 1008.8 |
| 20260504172658 | 38 | 242 | 4.3 | 8.7 | 0.08 | 0.61 | 0.43 | 95 | 1009.0 |
| 20260504172558 | 38 | 174 | 2.6 | 8.7 | 0.08 | 0.61 | 0.43 | 95 | 1009.0 |
| 20260504172357 | 38 | 86 | 3.5 | 13.0 | 0.08 | 0.61 | 0.43 | 94 | 1008.7 |
| 20260504172257 | 38 | 209 | 1.7 | 13.0 | 0.08 | 0.61 | 0.43 | 94 | 1009.0 |
| 20260504172157 | 38 | 140 | 6.1 | 13.0 | 0.07 | 0.60 | 0.42 | 95 | 1009.1 |
| 20260504172057 | 38 | 167 | 3.5 | 13.0 | 0.07 | 0.60 | 0.42 | 95 | 1008.9 |
| 20260504171958 | 38 | 137 | 2.6 | 13.0 | 0.07 | 0.60 | 0.42 | 95 | 1008.9 |
| 20260504171858 | 38 | 147 | 3.5 | 13.0 | 0.07 | 0.60 | 0.42 | 95 | 1008.8 |
| 20260504171757 | 38 | 258 | 3.5 | 14.8 | 0.08 | 0.60 | 0.42 | 95 | 1008.8 |
| 20260504171657 | 38 | 245 | 1.7 | 14.8 | 0.08 | 0.60 | 0.42 | 95 | 1008.7 |
| 20260504171558 | 38 | 191 | 9.6 | 14.8 | 0.07 | 0.59 | 0.41 | 95 | 1008.8 |
| 20260504171459 | 38 | 328 | 3.5 | 14.8 | 0.07 | 0.59 | 0.41 | 95 | 1009.1 |
| 20260504171357 | 38 | 112 | 1.7 | 14.8 | 0.07 | 0.59 | 0.41 | 95 | 1009.2 |
| 20260504171257 | 38 | 111 | 2.6 | 14.8 | 0.07 | 0.59 | 0.41 | 95 | 1009.0 |
| 20260504171157 | 38 | 111 | 0.0 | 14.8 | 0.07 | 0.59 | 0.41 | 95 | 1009.2 |
| 20260504171056 | 38 | 96 | 10.4 | 14.8 | 0.06 | 0.58 | 0.40 | 95 | 1009.1 |
| 20260504170959 | 38 | 101 | 10.4 | 10.4 | 0.06 | 0.58 | 0.40 | 95 | 1009.1 |
| 20260504170857 | 38 | 348 | 4.3 | 6.1 | 0.07 | 0.58 | 0.40 | 95 | 1009.3 |
| 20260504170757 | 38 | 218 | 1.7 | 5.2 | 0.07 | 0.58 | 0.40 | 95 | 1009.4 |
| 20260504170558 | 38 | 160 | 3.5 | 4.3 | 0.07 | 0.58 | 0.40 | 95 | 1009.3 |
| 20260504170458 | 38 | 292 | 0.9 | 4.3 | 0.06 | 0.57 | 0.39 | 95 | 1009.1 |
| 20260504170357 | 38 | 304 | 1.7 | 4.3 | 0.06 | 0.57 | 0.39 | 95 | 1009.2 |
| 20260504170256 | 38 | 309 | 2.6 | 4.3 | 0.07 | 0.57 | 0.39 | 95 | 1009.2 |
| 20260504170157 | 38 | 5 | 1.7 | 4.3 | 0.07 | 0.57 | 0.39 | 95 | 1009.2 |
| 20260504160357 | 38 | 153 | 2.6 | 8.7 | 0.04 | 0.50 | 0.32 | 95 | 1009.7 |
| 20260504160257 | 38 | 170 | 8.7 | 9.6 | 0.04 | 0.50 | 0.32 | 95 | 1009.7 |
| 20260504160157 | 38 | 159 | 6.1 | 7.0 | 0.04 | 0.50 | 0.32 | 95 | 1009.7 |
| 20260504150958 | 37 | 148 | 3.5 | 7.0 | 0.03 | 0.46 | 0.28 | 95 | 1010.2 |
| 20260504150856 | 37 | 162 | 5.2 | 7.0 | 0.03 | 0.46 | 0.28 | 95 | 1010.1 |
| 20260504150756 | 37 | 138 | 1.7 | 7.0 | 0.03 | 0.46 | 0.28 | 95 | 1010.1 |
| 20260504150656 | 37 | 26 | 0.9 | 7.0 | 0.03 | 0.46 | 0.28 | 95 | 1010.1 |
| 20260504150555 | 37 | 26 | 0.9 | 7.0 | 0.03 | 0.46 | 0.28 | 95 | 1010.1 |
| 20260504150356 | 37 | 100 | 2.6 | 7.0 | 0.03 | 0.46 | 0.28 | 95 | 1010.3 |
| 20260504150156 | 37 | 146 | 2.6 | 7.0 | 0.03 | 0.46 | 0.28 | 95 | 1010.1 |